GFSSW_sfc_temp_000.txt.gz
Temp
63 63 63 63 63 63 64 64 63 63 63 63 64 63 63 64 64 64 64 73 72 70 69 69 66 65 64 61 62 57 48 44 49 51 56 57 56 58 58 56 57 62 57 57 55
62 62 63 63 62 63 63 63 63 63 63 63 63 63 63 63 63 64 72 72 71 70 69 67 63 63 59 59 59 54 45 50 57 55 55 58 58 58 55 55 55 57 56 53 54
62 62 62 62 62 62 62 62 62 62 63 63 63 63 62 60 61 67 72 72 72 70 70 69 67 64 56 57 57 54 50 55 60 61 60 59 55 59 56 55 58 60 60 53 51
61 61 61 61 62 62 62 62 62 62 62 62 62 62 61 60 56 68 71 71 71 69 70 67 64 58 55 55 60 51 57 59 61 61 58 57 57 57 56 67 64 62 59 53 52
61 60 60 61 61 62 62 62 62 62 62 62 62 62 60 57 64 67 68 69 67 68 67 65 62 59 54 55 56 54 56 60 61 60 57 58 58 57 57 61 61 62 59 54 55
61 60 60 60 61 61 61 62 62 62 62 62 62 60 57 55 68 67 67 65 67 66 65 65 63 63 57 57 56 55 57 57 58 59 58 58 55 57 65 58 59 59 60 56 55
61 61 60 60 61 61 61 61 62 61 61 62 62 60 56 62 67 65 67 65 65 65 63 63 64 62 57 54 58 55 54 54 58 56 57 55 52 51 66 56 59 58 57 57 56
61 61 60 60 60 61 61 61 61 61 61 61 61 56 57 65 63 65 64 62 63 64 62 61 62 60 56 58 56 48 46 44 55 53 55 57 50 59 61 56 59 58 56 56 58
60 60 60 60 60 60 61 61 60 61 61 61 54 56 57 66 62 65 65 62 61 61 61 68 61 56 52 48 45 41 41 41 48 55 52 51 49 57 56 55 56 58 56 57 60
60 60 60 60 60 60 60 61 59 59 59 61 65 54 60 60 61 62 61 63 59 58 58 57 52 49 45 44 39 40 38 42 45 50 48 46 49 58 60 55 54 56 54 54 56
60 60 60 60 60 61 57 53 56 55 54 57 56 57 59 61 61 60 62 62 59 54 49 50 45 43 53 48 54 44 42 43 48 56 48 48 51 56 62 56 51 55 60 63 64
60 60 60 60 60 60 53 49 46 47 46 56 56 57 61 60 57 57 63 57 53 48 49 44 42 52 54 50 48 47 46 47 52 54 47 50 51 57 56 60 62 61 61 60 62
60 60 59 60 60 56 50 48 53 50 42 51 55 56 58 60 55 56 60 54 49 46 47 50 51 53 51 48 46 46 44 47 46 48 45 43 46 46 52 55 60 57 60 63 65
60 59 59 59 56 51 49 52 52 49 38 46 52 54 55 56 53 53 54 54 47 48 46 45 54 51 46 46 50 47 50 49 44 39 40 41 39 44 50 52 54 56 57 59 61
59 59 59 60 51 51 54 53 50 48 29 49 51 58 53 52 49 50 51 51 44 46 46 47 47 45 44 51 49 50 48 45 41 36 34 35 34 42 48 46 52 59 60 61 64
58 58 59 55 51 54 53 51 49 43 29 47 49 47 46 47 47 47 48 51 48 44 44 46 46 47 48 46 48 46 44 41 35 35 33 39 39 41 41 48 50 57 61 61 64
58 57 57 59 52 56 54 51 43 35 47 46 45 45 44 44 44 44 42 41 42 38 37 41 43 43 48 43 42 44 41 29 26 22 29 40 33 50 49 57 54 58 60 62 62
57 57 56 59 58 56 55 46 35 44 44 50 46 45 44 46 45 42 39 38 41 41 36 36 40 44 46 48 43 41 44 35 23 28 39 30 32 45 52 56 56 56 56 54 53
56 56 54 55 55 55 47 37 40 43 49 47 49 42 39 43 47 41 38 38 43 45 42 37 40 44 44 44 49 37 35 46 33 18 22 40 44 51 48 53 52 53 52 52 51
53 53 53 56 56 51 42 41 43 47 49 50 42 44 37 41 41 39 38 43 44 45 49 43 39 46 41 43 42 44 45 33 31 25 22 33 37 44 49 51 50 52 53 52 50
52 48 51 55 54 45 38 40 46 50 52 48 45 45 40 41 45 43 41 43 46 45 49 46 41 40 39 39 41 38 39 39 39 34 34 32 39 46 48 44 48 53 56 49 49
49 41 51 55 42 42 40 44 48 48 50 49 48 46 45 45 43 43 42 46 50 48 43 47 40 32 38 45 43 42 44 46 37 33 32 32 37 55 56 56 56 56 56 53 49
44 44 51 51 38 40 43 43 47 45 46 46 45 46 48 43 38 43 45 51 52 51 45 45 36 32 32 38 42 39 42 44 43 36 36 30 34 57 58 56 57 55 58 55 53
41 37 43 45 46 42 42 42 41 46 46 48 46 47 42 40 44 41 42 45 47 49 50 47 40 36 32 39 41 38 39 40 42 36 37 37 41 50 53 55 58 58 58 53 57
37 35 41 36 39 41 42 42 40 40 46 47 43 43 42 37 38 38 42 40 44 47 46 43 35 36 38 41 41 42 41 42 41 44 37 42 43 48 53 55 57 60 60 57 51
34 33 38 36 38 38 39 38 38 40 42 40 40 43 41 35 35 33 34 34 34 37 36 38 33 36 34 37 36 34 40 41 41 42 42 42 41 53 55 57 56 57 58 57 55
36 37 37 33 30 29 32 35 37 39 39 41 38 33 34 36 38 38 38 36 37 34 34 34 32 31 28 32 31 28 36 36 40 42 42 35 43 40 38 42 49 50 39 39 41

GFSSW_sfc_temp_003.txt.gz
Temp
63 63 63 63 63 63 63 63 63 63 63 63 63 63 63 63 64 61 62 72 70 70 70 66 64 63 62 59 59 54 47 42 47 48 53 55 54 56 56 54 55 59 55 54 51
62 62 63 63 63 63 63 63 63 63 63 63 63 63 63 62 60 61 71 72 72 70 68 65 61 62 57 56 57 53 44 49 53 52 52 56 56 56 53 54 53 56 55 50 51
62 62 62 62 62 62 63 62 62 62 63 62 62 62 62 59 60 65 72 72 71 70 68 67 64 62 53 53 54 51 49 52 58 58 58 56 54 58 52 54 56 59 61 52 49
62 61 61 62 62 62 62 62 62 62 62 62 62 62 61 57 55 67 71 71 70 68 67 64 61 56 53 53 57 49 55 56 58 59 56 55 56 55 55 66 62 62 59 52 49
61 61 61 61 62 62 62 62 62 62 62 62 62 62 59 56 62 65 67 68 65 66 65 63 59 57 53 53 53 51 54 58 58 57 56 57 56 55 56 63 60 60 58 55 52
61 61 61 61 61 62 62 62 62 62 62 62 62 60 56 53 67 66 65 63 63 61 61 62 60 60 54 55 54 53 55 56 56 56 57 57 60 55 62 58 60 57 57 55 53
62 61 61 61 61 62 62 62 62 62 61 61 61 58 55 62 64 64 64 62 64 62 59 59 59 58 55 52 56 53 52 52 52 53 55 54 52 50 64 56 59 56 56 56 54
61 61 60 60 61 61 61 61 61 61 61 61 61 53 56 64 61 62 62 60 62 62 61 59 61 58 54 56 54 48 45 43 52 51 53 55 48 64 59 54 57 58 56 55 57
60 60 60 60 60 60 61 61 60 60 60 60 53 52 56 64 60 63 62 62 61 59 59 66 60 55 51 46 44 40 39 40 46 54 53 51 47 58 55 54 55 56 57 59 60
60 60 60 60 60 60 60 61 59 59 58 59 62 52 59 60 60 61 58 62 58 57 56 55 50 47 42 43 38 39 36 40 41 53 45 44 46 54 59 52 54 57 59 62 63
60 60 60 60 60 61 56 53 55 53 52 57 55 56 59 58 60 57 60 60 57 53 47 48 44 42 51 47 53 42 41 40 46 52 44 46 50 53 59 58 60 60 57 61 62
60 60 60 60 60 60 52 48 45 46 46 55 54 56 57 58 55 55 60 55 51 47 46 42 41 52 51 48 45 43 43 44 51 54 45 48 49 53 53 58 61 64 64 65 65
60 60 60 60 60 55 48 47 51 48 41 50 53 53 55 58 54 54 58 52 48 44 45 48 50 51 49 45 43 43 42 46 45 46 44 42 46 49 50 51 58 61 63 63 62
60 60 59 60 56 51 49 52 51 48 38 45 50 52 53 53 49 51 51 52 46 46 44 44 51 50 43 43 47 45 47 47 43 37 37 40 38 43 52 55 56 57 59 57 60
59 59 59 60 51 51 52 51 50 47 30 48 49 56 51 50 47 48 50 50 44 44 43 45 42 41 42 48 47 46 47 43 38 35 33 34 31 39 46 48 50 54 56 59 61
58 58 59 55 51 53 52 50 49 42 31 45 48 46 45 46 45 46 47 50 47 42 42 44 44 47 47 45 46 45 42 38 33 35 29 37 37 46 42 48 48 53 57 58 58
57 57 56 58 53 55 53 51 40 35 47 44 43 44 43 43 44 43 42 40 42 38 37 40 41 42 48 43 40 42 37 28 25 22 28 37 33 50 50 52 53 59 54 55 54
56 57 56 59 58 55 54 45 35 43 41 46 45 42 42 46 46 43 38 39 40 38 35 35 38 42 45 46 42 39 40 29 21 25 36 30 30 48 53 54 51 51 52 51 53
56 56 54 56 56 55 49 38 38 44 47 46 45 39 38 41 43 40 36 37 43 45 41 34 36 40 43 44 49 38 35 44 33 27 27 39 42 51 49 50 48 50 48 51 51
49 54 53 56 56 52 44 41 42 48 48 48 41 45 37 40 43 42 41 41 42 44 47 43 36 43 40 41 42 44 44 32 30 22 23 33 39 43 50 55 49 48 48 51 53
50 47 51 54 54 46 37 41 46 50 52 48 44 43 41 42 45 43 43 42 44 43 47 45 40 39 39 38 42 35 35 37 38 32 31 30 37 55 54 48 46 49 52 52 51
48 40 51 54 42 43 41 45 48 48 49 50 48 47 45 44 43 42 41 44 50 49 43 45 40 32 37 42 42 42 40 39 32 33 34 37 39 56 58 49 49 52 56 55 53
42 41 51 50 38 40 44 44 47 46 45 46 45 45 47 43 38 43 45 51 50 48 43 43 36 31 31 35 35 34 40 41 42 39 32 29 36 55 56 55 56 53 51 52 53
40 35 43 46 46 42 41 42 41 47 45 48 46 45 42 40 43 37 39 44 44 45 46 45 39 34 29 31 39 35 39 42 39 32 34 36 40 47 51 53 56 55 51 46 40
37 36 39 33 38 40 42 40 38 39 45 46 42 42 41 35 37 35 40 38 40 41 40 40 32 35 36 38 37 35 34 36 37 40 34 38 39 45 49 40 33 38 37 37 37
34 32 37 33 38 37 38 37 36 39 41 39 39 43 41 35 36 32 32 34 34 35 35 38 29 33 30 34 35 32 33 33 33 33 32 35 36 27 29 31 31 34 36 36 37
35 36 36 33 30 31 32 37 38 38 39 39 36 35 35 35 33 36 37 36 36 34 30 31 30 26 23 31 30 24 31 36 38 35 32 26 22 26 26 27 29 31 35 35 37

GFSSW_sfc_temp_006.txt.gz
Temp
63 63 63 63 63 63 63 63 63 63 63 63 63 63 63 63 63 59 61 71 69 70 69 65 63 61 60 58 56 52 46 40 45 45 51 53 51 54 54 52 52 58 55 55 49
62 62 63 63 63 63 63 63 62 62 63 63 63 63 63 62 57 59 70 72 71 70 66 64 60 60 56 55 54 51 43 47 51 49 52 54 54 56 52 54 52 55 57 50 48
62 62 62 62 63 63 63 62 62 62 62 62 62 62 62 59 59 64 72 72 71 70 66 64 62 61 53 52 53 49 48 50 55 56 55 54 52 55 52 54 55 58 60 53 49
62 62 62 62 62 63 63 63 62 62 62 62 62 62 61 55 54 64 70 71 70 67 66 62 59 54 51 51 54 47 53 54 55 57 53 54 55 54 55 65 63 61 60 53 51
62 61 61 62 62 63 63 63 63 62 62 62 62 62 57 55 62 64 67 68 64 64 63 60 57 54 50 50 51 48 51 55 56 53 55 54 56 54 53 62 59 59 57 56 53
61 61 61 61 62 62 63 63 63 62 62 62 61 61 55 52 65 64 62 63 63 62 60 60 59 58 53 52 52 51 52 53 53 55 54 55 59 54 59 55 60 55 57 55 53
61 61 61 61 61 62 62 62 62 62 62 62 61 57 53 60 62 62 63 60 61 61 59 59 59 56 54 50 52 51 50 50 50 52 51 51 50 48 61 52 58 57 55 55 54
61 60 60 60 61 61 61 61 61 61 61 61 61 52 55 62 59 61 60 59 60 60 60 59 60 57 53 53 52 46 42 42 49 47 50 53 45 60 59 52 55 56 56 56 58
60 60 60 60 60 60 61 61 60 61 60 61 52 52 56 62 59 60 60 59 59 58 57 65 58 52 50 44 42 39 38 39 44 52 50 48 45 56 54 52 54 55 57 57 63
60 60 60 60 60 60 60 60 60 59 58 58 61 52 59 59 58 58 57 60 56 56 55 53 48 46 41 42 37 38 35 38 39 50 45 43 45 54 56 53 53 55 60 62 62
60 60 60 60 60 61 56 53 54 52 51 55 53 54 57 56 58 56 58 59 55 52 47 46 42 41 49 46 49 40 39 39 44 51 43 50 51 54 56 52 57 60 60 60 63
61 60 60 60 60 60 52 49 45 46 46 53 52 55 56 56 53 53 58 55 51 46 45 41 38 50 47 45 44 41 41 43 48 50 43 45 47 53 55 57 58 60 62 62 62
60 60 60 60 60 55 49 47 50 48 41 50 52 51 53 57 52 53 56 50 47 43 43 44 49 48 46 42 43 39 38 43 42 43 42 40 43 43 50 50 56 57 60 56 57
59 59 59 59 56 50 49 51 50 48 39 44 48 50 52 51 47 50 51 50 45 46 42 42 47 47 40 42 44 42 46 45 42 37 35 39 35 41 48 51 52 56 53 54 55
58 59 59 60 52 50 52 50 48 46 30 47 47 55 50 49 46 47 49 48 43 43 41 43 40 39 40 44 44 43 45 42 37 35 31 32 31 38 42 45 51 53 54 53 54
57 58 58 56 53 54 52 50 48 40 32 44 47 45 44 45 44 45 46 48 45 41 39 42 42 45 46 45 45 43 40 37 33 33 27 36 35 45 40 44 47 54 63 55 55
56 57 57 58 54 54 54 52 42 35 46 42 42 43 42 43 43 43 42 40 41 37 35 39 41 42 45 40 39 40 36 27 24 21 27 33 31 46 50 55 52 53 53 53 52
55 56 56 58 57 55 53 47 34 40 41 44 44 42 41 44 44 41 38 38 40 39 35 35 38 41 43 45 42 37 40 28 23 21 34 28 30 46 51 53 53 50 50 48 50
55 55 55 56 56 55 49 38 39 40 45 44 44 37 36 40 43 37 36 37 42 43 41 34 36 40 42 42 45 36 35 42 33 33 26 38 40 49 52 47 46 45 46 47 50
46 51 51 56 56 52 44 40 40 46 47 46 40 44 36 37 39 39 39 39 41 43 45 44 37 42 41 40 41 42 42 32 30 24 21 31 36 39 49 54 50 48 47 46 48
46 45 49 53 54 46 38 41 46 51 51 46 43 43 42 42 43 42 42 43 44 42 44 44 39 37 36 36 40 36 35 35 36 33 29 27 36 49 53 55 47 45 48 48 44
45 38 50 54 42 43 40 44 47 48 49 46 47 46 43 43 41 42 41 45 47 48 42 44 40 33 38 40 42 41 42 41 33 31 33 34 34 52 52 55 44 37 37 38 39
41 40 51 50 36 38 44 43 46 44 46 45 44 45 47 42 37 42 43 47 48 45 42 42 35 29 31 36 35 33 37 40 39 33 30 26 30 50 51 41 37 35 36 37 39
40 31 42 44 44 40 39 40 41 46 45 46 45 46 42 39 43 40 39 42 41 43 44 43 35 32 28 32 37 34 36 37 35 30 30 30 34 43 31 29 29 34 35 36 38
33 32 36 30 36 38 40 39 36 36 42 45 42 41 39 35 36 35 39 39 38 40 39 38 31 35 36 36 34 32 31 33 30 34 28 32 33 34 25 26 29 32 34 35 36
30 31 33 30 34 33 35 35 36 38 39 38 38 40 39 35 36 32 35 32 33 34 35 36 27 29 25 31 32 29 32 32 32 32 32 33 30 27 28 31 31 32 30 32 34
33 34 35 31 29 27 27 30 33 33 34 35 33 33 33 33 34 33 34 34 34 30 29 30 28 26 21 28 26 20 27 30 32 36 28 24 22 23 25 30 32 33 31 32 31

GFSSW_sfc_temp_009.txt.gz
Temp
63 63 63 63 63 63 63 63 63 63 63 63 63 63 63 63 63 59 60 70 68 70 69 65 65 63 63 60 59 57 49 44 49 48 55 58 57 60 61 62 60 62 63 66 55
63 63 63 63 63 63 63 63 63 63 63 63 63 63 63 62 56 59 70 72 71 70 66 64 60 61 58 57 57 54 46 50 54 53 56 58 58 60 60 61 59 61 63 59 54
63 63 63 63 63 63 63 63 63 63 63 62 62 62 62 59 60 65 72 72 70 70 66 64 62 61 56 55 55 52 50 53 56 57 57 56 56 60 58 56 60 61 65 61 55
62 62 62 62 63 63 63 63 63 63 63 62 62 62 61 56 54 64 71 71 70 67 66 63 61 56 53 53 55 50 54 54 57 57 55 56 56 56 58 67 66 63 64 62 57
62 61 61 62 62 63 63 63 63 62 62 62 62 62 56 54 62 63 67 68 65 65 64 60 58 55 52 52 52 50 52 56 55 55 55 55 56 55 56 63 62 61 59 60 59
61 61 61 61 62 62 63 63 63 62 62 62 62 61 54 51 65 63 62 62 63 62 60 61 59 58 54 52 53 52 53 53 53 56 54 55 59 55 59 60 62 58 61 59 57
61 61 61 61 61 62 62 62 62 62 62 62 62 57 52 60 62 60 63 60 61 62 58 58 60 58 56 51 54 52 51 52 51 53 52 52 51 50 62 55 59 62 60 59 58
61 61 60 61 61 61 61 61 61 61 61 61 61 52 56 60 58 60 59 58 59 60 61 60 60 58 55 54 52 47 45 44 52 49 51 54 49 59 60 56 58 59 62 59 63
60 60 60 61 60 60 61 61 60 61 61 61 51 52 56 61 58 58 58 58 58 58 59 63 59 52 50 46 43 41 39 40 45 52 51 50 47 55 55 54 55 59 62 65 66
60 60 60 60 60 60 60 60 60 59 57 57 60 51 58 57 57 58 57 59 56 56 55 54 48 46 42 43 39 40 37 38 41 53 46 46 45 54 56 56 59 61 62 61 62
60 60 60 60 60 61 56 53 54 52 51 54 54 54 56 56 57 56 58 58 56 53 46 46 43 41 47 46 44 42 40 39 46 51 45 50 50 52 56 55 57 60 62 63 63
60 60 61 60 60 60 53 50 47 47 45 53 52 54 55 55 53 53 58 54 51 46 44 42 40 49 47 45 44 42 40 41 46 49 43 45 48 54 56 58 59 60 61 59 59
60 59 60 60 60 55 49 48 49 49 41 49 51 50 52 56 51 52 55 50 46 42 42 42 47 47 46 42 42 39 39 43 41 42 43 40 42 44 53 51 53 57 57 56 56
59 59 59 60 56 49 49 50 49 47 38 44 48 50 51 51 46 50 50 49 44 44 42 42 45 46 41 43 43 39 45 43 40 38 34 43 35 41 51 52 53 53 54 54 55
58 58 59 60 52 51 51 49 48 46 33 46 46 54 50 48 46 47 48 47 41 42 43 44 42 40 40 44 44 43 43 41 39 36 34 34 31 40 44 47 50 54 56 55 55
57 58 58 57 55 53 50 49 48 42 33 43 46 44 43 44 44 45 46 48 45 41 39 42 43 44 46 44 44 43 41 37 34 35 29 37 36 39 42 48 48 52 57 54 54
56 57 57 59 54 54 54 53 40 34 46 41 42 42 41 41 42 42 41 40 42 37 35 38 40 41 44 40 39 41 38 29 26 23 28 34 32 43 49 54 52 56 54 51 51
55 56 56 58 55 54 53 47 34 40 41 43 43 41 41 44 43 41 40 39 40 40 34 35 37 41 43 44 42 37 39 32 24 24 34 27 32 46 48 52 52 50 49 48 48
55 53 54 55 56 55 49 38 39 39 44 42 44 38 35 38 43 39 38 37 40 43 41 33 34 39 41 43 46 36 35 42 33 29 28 37 40 51 51 49 48 43 40 38 40
46 49 51 55 54 52 44 40 43 46 47 46 39 42 35 37 41 41 39 39 40 42 46 43 35 40 40 39 41 42 44 33 30 23 25 33 37 40 46 40 36 36 36 37 39
46 43 48 53 55 46 36 39 44 49 51 46 43 42 42 40 43 38 41 42 43 42 43 42 39 38 37 36 38 36 35 36 37 33 29 27 34 45 35 34 32 34 36 37 38
44 37 50 54 42 43 39 43 46 46 49 46 46 42 40 42 40 39 39 44 48 45 41 43 37 30 33 41 38 38 39 40 31 29 32 33 32 47 33 33 34 34 36 37 38
39 39 50 50 35 38 41 42 45 42 43 44 43 45 43 40 36 41 41 43 45 43 40 41 35 29 32 35 35 35 37 38 36 32 30 27 31 42 36 34 33 33 34 35 37
35 30 39 44 41 39 38 39 39 43 43 45 43 43 40 38 40 38 38 42 40 43 44 42 35 32 28 32 36 32 34 36 34 29 30 31 34 39 30 28 31 31 32 33 35
32 30 36 33 32 34 37 37 33 33 40 41 37 38 36 34 34 34 37 37 40 41 38 39 31 33 33 34 33 30 29 29 27 30 25 30 30 36 24 26 29 33 32 32 33
29 27 31 34 35 30 37 32 34 35 37 35 34 36 35 32 35 31 33 34 35 32 32 35 29 28 23 30 30 28 30 31 31 31 30 31 31 27 28 30 30 32 32 31 32
31 33 31 29 28 26 26 30 29 32 32 32 31 30 29 31 32 34 33 32 32 31 29 30 27 23 22 28 25 19 25 29 31 33 30 25 21 20 22 27 28 29 31 31 31

GFSSW_sfc_temp_012.txt.gz
Temp
64 63 64 64 64 64 64 64 63 63 63 63 63 63 63 63 64 68 72 78 76 70 72 77 77 76 76 72 72 72 67 63 64 62 70 73 71 72 76 75 74 76 79 85 71
63 63 63 63 63 64 64 63 63 63 63 63 63 63 63 62 67 70 76 72 71 70 77 77 73 74 74 70 71 70 64 66 71 72 71 73 71 73 71 75 76 75 81 79 71
63 63 63 63 63 63 63 63 63 63 63 63 63 62 62 64 72 77 72 72 70 73 79 77 77 75 70 69 69 66 66 71 70 72 71 70 70 72 72 70 76 76 82 83 75
62 62 62 62 63 63 63 63 63 63 63 63 62 62 61 69 67 78 71 71 70 78 78 74 73 70 67 66 68 62 68 69 70 68 67 67 71 68 71 75 82 82 81 79 78
62 62 62 62 62 63 63 63 63 63 63 63 62 62 68 70 74 73 68 70 75 76 76 73 71 69 65 66 64 61 67 68 69 66 67 69 66 68 70 77 80 80 75 73 76
62 61 61 61 62 63 63 63 63 62 62 62 62 61 70 63 74 73 70 69 75 75 73 74 73 72 68 66 64 66 64 66 67 66 67 63 69 67 74 78 76 78 77 80 78
62 61 61 61 62 62 62 62 62 62 62 62 62 64 66 71 73 72 71 71 72 74 69 71 73 71 69 64 65 64 61 67 69 66 64 64 61 62 76 74 72 77 80 80 79
61 61 61 61 61 61 62 62 61 61 61 62 62 65 68 68 73 69 72 69 70 72 72 72 72 70 67 67 64 60 59 57 69 61 63 64 59 72 76 71 72 75 78 79 80
60 60 61 61 61 61 61 61 60 61 62 62 63 67 67 65 67 67 70 68 68 69 70 70 71 66 64 61 58 59 55 57 59 65 60 60 60 70 73 70 70 73 75 77 77
60 60 60 61 60 61 60 61 60 61 62 63 67 65 70 66 65 65 68 68 66 65 65 65 65 62 59 59 52 57 56 56 54 65 63 59 58 64 68 67 67 70 73 74 75
60 60 61 61 61 61 64 66 67 65 64 66 67 66 65 65 66 63 66 65 66 64 59 59 57 55 62 62 63 58 55 54 60 64 58 58 59 63 67 68 67 69 71 73 74
60 60 61 61 61 60 65 63 59 58 57 62 60 61 62 65 62 61 66 62 60 57 55 54 52 62 59 57 55 55 52 53 59 61 54 58 56 62 65 65 68 69 70 71 72
60 59 60 60 60 63 60 58 59 59 54 58 58 58 61 64 60 59 62 60 58 52 53 56 60 59 54 56 52 54 51 54 53 56 58 54 56 58 67 64 68 67 69 69 67
59 59 59 60 61 61 60 58 58 58 53 54 56 59 59 61 56 58 60 60 56 54 53 53 55 53 51 52 56 49 58 54 50 49 47 54 44 58 63 64 64 67 68 68 65
58 59 60 61 64 61 59 58 57 56 39 55 56 63 59 57 56 55 59 59 54 53 54 55 50 48 48 53 54 54 52 50 48 48 45 51 45 57 58 58 63 67 64 61 60
57 58 58 61 61 60 59 57 58 51 37 52 56 53 54 54 53 54 56 60 56 53 52 55 53 54 57 53 53 51 51 49 47 47 40 51 48 53 57 58 61 59 54 53 52
56 57 58 61 59 58 57 56 45 38 54 50 51 53 52 51 51 52 52 51 52 49 51 53 50 53 53 51 50 50 48 42 40 40 39 48 44 53 62 60 55 52 49 49 50
56 57 56 58 59 59 59 51 35 48 50 52 51 50 50 52 52 50 50 51 51 50 50 46 44 50 53 54 54 48 49 42 31 34 41 38 41 52 59 52 49 49 48 49 49
56 58 56 58 59 59 53 38 43 47 51 50 51 48 49 48 50 49 48 50 51 52 47 46 46 50 48 52 55 47 43 51 40 40 35 45 52 60 57 46 46 46 46 45 45
52 53 53 58 59 55 46 41 47 52 52 51 44 48 44 47 46 45 46 50 49 51 52 49 40 50 51 50 51 49 53 40 40 29 27 39 44 47 47 44 43 42 42 44 44
51 47 53 56 57 47 37 42 47 53 54 48 47 46 47 44 44 43 44 51 52 53 50 49 43 44 46 46 46 46 42 43 43 39 30 29 39 51 48 41 40 40 40 41 42
49 42 53 56 43 45 40 45 48 48 52 49 50 47 45 46 43 43 43 48 54 52 44 50 42 34 42 50 48 47 45 47 36 32 38 36 37 43 40 40 38 37 38 40 42
45 44 52 51 38 39 45 45 48 46 47 46 45 47 48 43 38 44 46 51 52 48 45 45 35 30 35 42 41 39 41 43 38 33 31 28 32 41 37 36 38 37 37 38 39
42 37 44 45 46 44 42 42 42 48 47 48 46 47 44 41 44 40 42 46 45 46 44 42 36 33 29 36 37 33 35 34 33 29 30 32 37 42 45 39 38 38 38 39 39
39 37 41 36 38 41 43 42 39 37 44 46 42 42 38 35 36 36 41 41 43 43 43 41 31 36 37 39 39 36 35 37 35 36 28 34 33 39 42 39 36 38 39 38 38
36 36 38 38 39 38 39 38 38 40 40 39 38 41 40 35 38 33 37 37 37 42 39 42 29 34 29 37 36 31 35 34 34 35 35 35 35 45 36 36 36 37 37 37 38
38 39 39 34 33 34 35 38 34 38 36 37 36 34 33 37 37 38 38 37 37 34 33 33 31 28 23 33 32 23 29 33 36 39 38 31 34 31 31 34 36 37 37 37 38

GFSSW_sfc_temp_015.txt.gz
Temp
64 64 64 64 64 64 64 64 64 64 64 64 64 63 63 63 64 73 77 80 78 71 72 82 82 81 81 78 78 79 69 66 69 70 73 78 74 79 83 78 82 82 81 87 81
63 63 64 64 64 64 64 64 63 63 63 63 63 63 63 63 74 77 78 73 71 71 82 80 78 79 78 75 76 72 68 70 77 78 75 78 77 77 76 78 80 83 88 89 88
63 63 63 63 63 64 64 63 63 63 63 63 63 63 62 65 75 81 73 72 70 73 85 85 83 78 73 75 74 74 67 76 77 78 78 75 74 79 74 72 80 81 85 88 87
63 63 63 63 63 63 64 63 63 63 63 63 63 62 62 75 68 79 71 71 70 83 82 79 78 73 70 69 77 65 73 74 75 76 71 71 77 74 74 76 82 84 85 84 82
62 62 62 62 63 63 64 63 63 63 63 63 63 62 70 74 77 78 69 70 79 80 79 77 75 74 69 73 72 66 70 74 75 74 71 72 70 72 73 81 84 84 83 82 82
62 62 61 62 62 63 63 63 63 62 62 62 62 61 73 67 78 80 78 75 80 79 79 79 77 79 72 71 69 72 68 70 72 72 72 68 70 73 76 83 82 81 82 84 85
62 61 61 61 62 62 62 62 62 62 62 62 62 68 71 73 79 78 76 77 78 79 76 80 78 73 74 69 73 68 63 69 72 74 71 69 64 67 79 81 78 78 82 83 84
62 61 61 61 61 61 62 62 61 61 61 62 62 70 70 72 79 74 76 74 76 78 77 77 78 74 70 72 68 63 66 58 71 68 68 66 60 73 78 77 75 77 79 80 82
61 60 61 61 61 61 61 61 61 62 62 62 67 70 71 68 71 72 76 73 73 74 74 74 74 70 69 62 61 65 56 60 63 73 67 63 60 70 75 73 72 75 77 78 79
61 61 61 61 61 61 60 61 61 60 66 69 72 67 70 69 68 69 72 74 70 69 67 68 68 63 64 62 52 59 60 62 61 69 66 64 63 69 73 73 73 75 77 78 78
61 61 61 61 61 61 66 71 69 67 68 70 70 70 73 69 70 67 70 69 70 68 61 64 59 56 63 66 65 63 60 58 63 68 64 61 62 66 71 72 73 76 77 77 75
60 61 61 61 61 61 68 68 62 60 59 72 69 67 68 70 64 65 70 65 63 59 62 57 54 65 67 61 60 60 56 56 63 67 59 60 59 64 69 70 74 72 73 71 70
60 60 60 61 61 67 67 63 65 65 58 65 64 63 65 66 63 66 67 65 61 59 58 57 63 65 61 60 57 58 55 56 55 60 62 59 57 64 69 73 75 72 71 67 62
60 60 60 60 61 69 66 64 65 65 56 60 59 61 63 64 59 63 65 64 61 57 61 59 63 57 57 55 59 52 63 58 55 51 48 58 44 57 66 68 66 65 63 60 58
59 59 60 58 69 67 63 65 64 62 40 58 58 66 63 59 59 57 63 62 57 58 57 57 54 52 53 56 60 56 57 56 54 50 50 53 50 57 66 62 65 61 58 57 57
58 59 59 63 69 65 65 63 62 52 39 55 59 56 57 58 57 58 59 64 60 57 58 58 58 57 59 59 58 56 54 55 54 50 41 53 52 54 59 60 56 55 55 55 55
56 58 57 63 64 65 65 63 48 39 57 53 53 56 56 55 55 56 56 55 55 50 52 58 58 58 56 54 55 52 50 41 41 41 40 56 48 54 63 65 61 54 52 53 54
57 58 57 63 58 57 57 52 36 46 51 56 54 55 52 55 55 54 54 53 60 55 52 48 46 56 56 55 52 53 52 41 31 35 42 48 41 51 57 55 54 54 52 52 51
57 61 59 64 62 59 55 38 41 51 56 54 54 49 52 53 52 54 55 53 56 58 48 47 47 60 55 56 55 51 45 51 38 37 35 44 52 60 58 51 51 49 49 47 48
54 53 56 61 61 58 48 42 49 56 55 54 47 52 47 51 49 51 50 54 52 54 55 51 40 54 53 54 55 51 55 36 39 27 28 40 44 47 56 52 47 46 45 46 47
51 44 52 56 58 50 38 43 50 57 54 50 49 48 50 48 48 44 45 53 56 54 53 50 44 45 51 48 46 48 44 46 45 40 30 29 39 52 49 49 45 44 44 44 45
53 45 57 57 45 48 43 49 49 51 53 52 51 49 47 48 46 46 45 51 57 54 46 51 44 36 42 53 54 50 45 46 33 31 37 35 35 55 47 45 43 41 42 43 43
50 51 54 52 39 42 49 48 51 49 50 49 48 50 52 46 40 46 48 54 53 49 45 47 39 30 34 46 49 42 46 45 42 35 30 27 34 44 39 38 40 40 42 42 41
49 41 46 45 51 47 45 46 44 51 49 51 49 51 47 44 48 43 45 49 47 49 44 45 39 34 29 36 42 35 38 37 34 29 31 31 36 45 44 39 40 43 42 41 42
46 44 47 37 40 45 47 46 43 43 48 48 46 46 45 40 42 42 46 47 47 44 45 44 32 37 38 41 41 38 36 38 36 38 32 36 36 42 45 46 44 44 42 41 41
41 40 42 45 47 44 42 41 41 44 43 42 42 46 45 39 40 36 40 40 40 45 43 45 31 34 28 36 36 32 36 36 37 38 37 38 37 48 43 41 40 40 40 41 41
43 43 42 40 40 39 40 41 41 45 42 43 44 41 38 42 44 42 42 42 40 37 35 35 32 27 22 32 31 24 31 36 38 40 39 32 34 33 36 37 39 39 40 39 41

GFSSW_sfc_temp_021.txt.gz
Temp
64 64 64 64 64 64 64 64 64 64 64 64 64 64 63 63 63 63 65 73 72 70 70 70 68 68 68 64 64 61 50 46 51 55 55 62 61 64 65 61 62 67 64 68 64
63 63 64 64 64 64 64 64 64 64 64 64 64 64 63 63 61 65 72 72 71 70 71 68 64 67 60 62 61 55 47 52 58 55 55 60 57 58 61 61 60 62 66 65 64
63 63 63 63 64 64 64 64 63 63 64 63 63 63 63 61 63 68 71 72 71 70 71 71 69 67 57 59 58 56 51 57 63 62 61 60 60 60 58 55 62 62 64 67 65
63 62 63 63 63 64 64 63 63 63 63 63 63 63 62 61 55 68 70 71 71 71 70 68 64 58 55 55 62 52 61 61 62 64 61 57 60 59 58 63 66 65 66 64 67
62 62 62 62 63 63 64 63 63 63 63 63 63 62 62 59 64 69 68 69 69 69 66 66 60 59 53 57 59 55 57 62 62 62 60 62 59 57 59 66 65 66 67 65 65
62 61 61 62 62 63 63 63 63 62 62 62 62 62 58 55 71 71 69 67 70 67 65 66 63 64 58 57 55 56 56 58 60 61 60 59 57 57 62 61 64 65 63 63 64
62 61 61 61 62 62 62 62 62 62 62 62 62 62 59 63 70 71 71 66 67 67 63 66 66 62 59 56 60 57 53 56 58 58 58 59 53 56 63 62 62 61 60 63 58
61 61 61 61 61 62 62 62 62 62 62 62 62 57 58 66 64 69 68 65 67 68 66 66 67 62 58 59 58 52 48 44 57 57 56 56 48 59 64 60 62 61 58 55 54
61 60 61 61 61 61 61 61 61 62 63 62 56 55 57 66 64 65 65 64 65 65 65 71 64 57 56 49 44 45 41 44 51 58 55 52 47 59 63 58 60 56 54 53 52
60 60 61 61 61 61 61 62 61 60 61 64 66 54 60 61 61 64 63 66 61 59 59 57 54 48 46 44 37 42 41 46 45 54 52 47 49 54 59 59 58 51 49 50 49
60 61 61 61 61 61 58 57 57 55 55 58 60 59 62 61 63 60 63 62 60 54 48 51 45 41 47 49 49 46 44 43 48 56 49 51 49 54 58 57 56 49 49 48 48
61 61 61 61 61 61 56 56 54 55 51 61 62 63 64 63 57 58 62 55 53 48 50 46 42 51 53 52 51 47 44 43 49 54 50 50 49 54 56 56 54 50 47 47 47
60 60 60 60 60 58 58 56 60 57 47 56 59 59 59 61 56 55 59 56 51 48 48 43 51 55 54 50 48 45 43 44 45 48 48 44 42 49 54 51 51 49 48 47 45
60 60 60 60 57 59 56 60 60 56 42 50 53 55 58 57 51 58 58 55 52 49 48 46 54 52 49 47 49 42 49 48 46 40 36 44 32 44 48 45 46 45 43 43 44
60 60 60 59 56 56 58 60 58 52 31 52 52 60 57 53 52 51 56 53 47 49 48 46 47 45 45 48 50 46 48 45 44 39 35 38 32 40 44 41 42 41 43 42 42
59 59 59 59 58 61 61 60 54 43 32 47 51 50 49 51 51 51 51 52 51 47 47 47 49 48 49 50 50 49 45 43 40 37 27 37 36 37 42 44 41 42 42 42 42
58 58 57 60 57 61 60 55 43 35 50 45 46 49 48 47 47 48 46 42 42 38 37 44 46 47 50 45 46 45 39 30 26 24 27 38 34 40 44 46 45 41 39 40 40
57 57 56 59 58 58 55 47 35 44 43 50 49 49 45 49 47 47 45 42 47 43 39 37 36 46 48 47 43 42 43 30 22 23 26 36 30 40 41 42 42 42 40 40 39
56 56 55 55 57 56 50 38 39 43 51 48 48 44 43 47 48 45 43 43 49 49 42 38 38 46 48 47 49 42 38 42 33 24 23 32 38 40 41 39 40 39 39 38 39
52 51 52 56 56 53 45 41 45 51 50 51 44 48 41 45 44 41 43 45 45 47 47 41 35 44 43 45 45 44 46 33 31 18 18 28 31 34 36 36 37 36 36 37 39
49 45 50 54 54 48 39 41 48 53 53 47 43 44 44 44 45 41 44 43 46 43 46 43 40 37 41 39 40 40 36 38 38 32 23 19 28 39 38 37 35 36 38 37 38
47 41 51 54 42 42 39 44 48 48 51 49 46 44 42 44 42 41 41 46 49 47 41 42 38 27 35 42 44 42 39 39 28 26 27 29 31 40 38 38 39 37 39 38 38
43 43 52 51 37 37 43 44 47 47 46 46 44 47 47 44 39 42 43 45 48 46 43 43 32 21 26 35 38 35 37 38 37 32 28 25 25 38 36 36 38 36 37 37 36
43 37 43 46 45 41 40 41 42 47 46 47 45 46 42 40 43 40 40 43 43 42 46 46 36 28 25 29 34 28 31 33 33 21 23 26 31 38 38 34 36 35 36 35 36
42 38 41 35 39 40 42 41 40 39 45 46 42 42 41 38 37 37 41 39 41 43 41 40 25 30 32 33 32 31 30 31 29 31 24 31 30 36 39 33 32 34 35 35 35
36 35 39 38 41 39 40 37 39 40 42 39 38 42 42 37 38 31 37 37 36 36 37 39 23 28 21 31 31 27 30 30 30 30 29 31 30 40 30 33 33 35 35 34 34
38 39 38 37 35 36 37 39 39 42 40 42 43 40 37 35 37 38 37 36 36 34 31 30 23 15 13 26 24 14 25 29 30 32 29 24 29 24 28 32 30 30 32 33 34

GFSSW_sfc_temp_024.txt.gz
Temp
64 64 64 64 64 64 64 64 64 64 64 64 64 64 63 63 63 61 63 72 71 70 69 67 67 67 66 62 62 57 48 44 47 50 52 59 58 62 60 58 59 64 60 63 62
63 63 64 64 64 64 64 64 64 64 64 64 64 63 63 63 59 62 72 72 71 70 68 66 61 63 59 59 59 53 45 50 55 53 52 58 55 57 58 58 56 57 63 62 58
63 63 63 63 63 64 64 63 63 63 63 63 63 63 63 60 61 65 71 72 71 70 69 67 66 64 55 56 55 52 49 54 58 58 57 58 58 56 53 55 60 60 61 63 59
62 62 63 63 63 64 64 63 63 63 63 63 63 63 62 59 53 65 70 71 70 69 67 65 62 57 53 53 58 50 58 58 61 59 57 55 58 58 55 61 63 62 61 59 61
62 62 62 62 63 63 64 63 63 63 63 63 63 62 60 58 63 67 68 68 68 67 64 63 59 57 52 54 55 52 55 59 61 60 57 58 57 55 58 63 62 62 62 58 55
61 61 61 61 62 63 63 63 63 63 62 63 62 62 58 54 67 69 67 66 68 65 63 63 60 61 56 54 53 54 55 57 58 59 57 57 53 55 61 57 62 61 54 51 51
61 61 61 61 62 62 62 62 62 62 62 63 63 61 57 62 67 67 68 65 66 65 62 62 63 59 56 54 58 55 52 54 55 55 56 56 51 54 62 59 58 55 49 50 50
61 61 61 61 61 62 62 62 62 62 62 62 62 56 57 65 62 66 65 63 65 66 65 63 63 61 56 56 56 49 47 43 54 53 54 54 47 58 62 56 55 49 45 47 48
60 60 61 61 61 61 61 61 61 62 63 62 55 53 56 66 62 63 63 62 63 63 63 69 62 55 54 47 43 42 39 41 49 55 52 50 47 57 62 56 49 45 46 46 45
60 60 60 61 61 61 61 62 61 60 60 62 63 52 58 58 60 62 61 64 59 58 58 56 51 46 44 43 37 40 39 43 43 51 49 48 48 54 57 55 49 44 44 44 44
60 60 61 61 61 61 59 56 56 54 53 57 57 57 60 59 61 59 61 60 58 54 47 49 44 41 46 47 47 44 42 41 45 53 47 48 46 52 55 52 46 44 44 44 43
60 60 61 61 61 61 56 53 53 53 50 59 58 59 61 61 55 56 62 55 51 47 48 44 41 51 50 49 47 44 41 41 46 50 47 47 47 52 51 48 47 44 43 42 42
60 60 60 61 60 58 56 56 59 56 47 54 57 57 57 60 54 54 59 53 49 46 45 42 49 52 50 47 45 43 41 42 44 46 44 41 41 47 45 45 46 44 44 43 41
60 60 60 60 56 57 55 59 58 56 41 48 51 54 56 57 50 56 56 53 48 47 45 44 51 50 45 45 46 41 48 46 43 39 35 40 31 40 44 41 41 40 38 39 39
59 59 60 60 55 56 57 57 56 54 31 50 50 58 55 52 51 50 54 51 45 47 46 45 44 44 44 47 49 45 46 44 41 37 33 35 32 37 40 37 37 37 38 38 38
59 59 59 58 58 58 58 57 55 43 32 45 49 48 48 48 48 49 49 51 50 45 44 45 47 47 47 47 47 47 44 41 36 35 27 36 35 34 38 41 37 37 38 39 38
58 58 58 61 56 60 59 56 42 35 47 44 44 47 46 44 45 46 44 41 41 37 37 42 44 46 47 43 44 43 38 29 26 24 26 36 31 37 37 40 40 37 36 37 37
58 58 57 59 59 59 55 47 35 42 41 47 47 45 43 46 45 44 42 39 43 40 36 36 35 44 47 46 43 40 40 29 22 21 26 32 30 36 36 38 39 39 37 38 37
58 57 55 54 59 57 51 39 40 44 48 46 46 41 41 45 45 42 40 40 45 45 41 35 37 43 45 46 47 40 35 39 31 17 22 30 30 36 37 35 36 36 37 36 37
54 53 53 55 57 54 47 42 44 51 51 49 42 44 38 42 42 41 40 43 44 46 47 43 34 42 43 44 43 42 44 32 29 17 17 26 29 31 32 33 35 35 35 35 37
51 48 51 55 55 49 41 42 46 52 53 48 44 43 43 43 43 38 41 42 45 43 46 42 40 35 40 38 39 38 35 36 36 29 21 17 27 36 36 37 35 36 37 36 36
48 42 51 54 44 44 40 44 48 49 51 47 47 44 43 45 40 39 40 45 47 46 41 43 38 27 35 40 41 38 38 38 26 25 26 27 30 39 39 38 37 36 38 36 36
44 43 51 51 39 39 43 44 47 46 45 46 45 46 46 43 39 40 41 43 45 45 41 42 33 19 26 36 37 35 36 36 34 28 21 23 26 38 36 36 37 36 35 36 36
43 37 43 46 45 43 41 41 42 47 46 47 45 46 43 40 43 39 38 41 42 44 46 45 34 30 30 30 34 29 32 33 33 21 23 27 29 36 35 35 35 36 36 35 35
42 39 42 36 39 41 44 43 40 39 45 46 41 43 41 36 36 37 39 37 40 43 40 41 33 30 32 35 34 32 31 30 29 30 25 31 28 36 35 34 35 36 34 33 33
38 36 39 38 42 41 41 37 39 42 42 38 38 42 41 39 38 34 39 37 36 36 37 37 25 29 22 31 31 27 31 29 30 31 29 31 30 39 37 32 31 33 33 32 32
39 39 38 37 36 36 37 37 38 42 39 42 42 40 38 41 41 38 38 37 39 36 33 32 25 20 18 24 24 14 23 30 32 32 31 25 31 25 30 32 31 31 33 33 33

GFSSW_sfc_temp_027.txt.gz
Temp
64 64 64 64 64 64 64 64 64 64 64 64 64 63 63 63 63 60 62 69 68 70 69 65 65 65 63 60 60 54 47 43 45 47 50 57 57 58 58 55 57 60 57 61 62
63 63 63 64 63 64 64 64 64 64 64 63 63 63 63 63 58 60 70 72 71 70 66 63 59 61 58 57 57 51 44 48 53 52 50 56 53 55 57 57 53 55 62 61 60
63 63 63 63 63 64 64 63 63 63 63 63 63 63 62 60 60 63 70 72 71 69 67 65 64 61 53 54 52 49 48 52 55 57 55 54 53 55 51 53 57 56 59 59 59
62 62 62 63 63 63 64 63 63 63 63 63 63 62 62 58 52 63 70 71 70 67 66 63 60 54 50 50 55 48 54 54 57 57 55 53 56 56 53 60 60 56 55 53 51
62 61 62 62 62 63 63 63 63 63 63 63 63 62 58 56 61 65 67 68 66 66 63 62 58 55 51 52 53 50 53 56 59 57 55 55 55 53 57 60 58 56 53 49 48
61 61 61 61 62 63 63 63 63 62 63 63 63 62 56 53 65 66 65 64 65 63 61 62 60 60 54 52 52 53 54 55 57 57 54 54 51 51 59 58 56 52 48 46 47
61 61 61 61 62 62 62 62 62 62 62 63 62 60 55 60 64 64 66 63 64 63 60 60 61 57 54 51 55 53 51 53 54 53 53 54 48 51 60 55 52 46 43 45 46
61 60 60 61 61 61 61 61 61 61 62 62 62 55 56 63 61 64 63 62 64 64 63 61 61 59 54 54 53 48 45 42 51 51 51 52 47 56 58 52 47 43 41 43 44
60 60 60 60 61 61 61 61 61 62 63 62 55 53 55 65 60 61 61 61 61 61 62 67 60 52 52 46 43 42 38 39 47 52 50 49 46 55 56 51 44 41 41 43 42
60 60 60 60 60 61 61 61 61 60 60 61 62 52 56 57 58 60 59 62 58 57 57 56 49 45 43 43 37 39 37 40 42 47 48 45 47 52 54 52 43 40 39 40 41
60 60 60 60 61 61 59 55 55 53 52 56 55 55 57 57 59 57 59 59 56 54 47 47 44 41 45 46 45 42 40 40 42 50 44 45 44 50 52 46 40 39 39 40 40
60 60 60 60 61 61 56 53 54 54 51 57 56 57 59 59 53 55 60 54 51 46 46 43 40 50 49 47 46 41 38 39 44 48 46 45 46 48 44 42 42 40 38 39 39
60 59 60 60 60 58 54 55 58 55 47 53 55 55 56 59 54 54 58 52 48 44 44 42 48 50 49 44 43 41 39 39 42 44 42 39 40 42 40 41 41 40 40 39 38
59 59 59 60 58 56 55 59 58 55 41 47 50 53 55 56 49 55 55 53 46 46 43 42 48 48 43 44 45 39 45 45 42 38 34 38 30 39 39 36 37 37 35 36 36
59 59 59 61 55 54 58 57 56 55 30 48 48 56 53 51 49 48 52 50 45 45 45 44 43 41 42 44 47 44 44 42 40 36 33 35 31 36 37 33 34 34 35 35 36
59 59 59 58 58 57 57 57 56 43 30 44 48 47 47 48 47 48 48 50 49 44 42 44 45 46 46 44 46 46 42 39 35 34 26 35 35 32 35 37 34 35 35 36 35
58 58 58 60 56 59 58 55 42 35 46 42 42 45 44 43 43 44 42 41 39 35 35 39 42 43 46 42 42 41 38 29 26 24 26 33 29 36 36 36 39 36 35 35 36
58 58 58 61 58 59 54 47 35 43 40 45 44 43 41 44 43 42 40 38 42 38 34 35 34 43 46 45 41 39 39 29 22 21 26 31 28 36 34 35 39 38 37 35 35
58 58 58 59 60 59 50 40 40 45 47 44 44 39 39 43 43 40 38 38 43 43 40 34 36 42 43 44 47 38 35 39 30 16 21 30 31 34 35 33 33 34 34 34 35
56 56 56 57 58 54 47 44 44 50 50 49 41 44 37 40 41 39 37 42 44 44 44 41 34 40 41 42 42 40 43 32 29 19 18 26 28 32 30 31 33 33 33 35 35
55 49 52 56 55 49 42 44 47 52 53 48 44 42 41 40 42 37 40 41 44 42 45 42 39 34 39 38 37 37 34 34 34 29 22 17 29 35 36 35 34 35 36 35 35
49 45 52 55 45 46 45 45 48 49 51 49 47 46 44 43 41 39 39 44 46 45 40 43 38 26 34 37 38 36 37 37 31 26 25 26 32 38 37 39 38 37 37 36 35
45 44 51 51 42 39 42 44 47 46 46 45 45 46 46 43 39 39 40 42 45 45 42 42 33 21 29 35 34 33 34 34 31 27 20 23 27 37 35 36 37 36 36 36 36
43 39 43 45 44 45 41 41 40 46 45 46 45 46 43 40 43 39 37 40 41 41 46 47 36 34 31 32 34 28 31 32 31 26 28 30 32 32 35 36 36 35 36 36 35
42 40 42 37 40 42 44 42 41 38 44 47 42 45 42 36 39 39 39 38 39 42 41 41 34 31 34 35 34 32 31 30 30 32 30 34 31 34 35 35 34 36 36 34 34
38 37 39 38 43 41 42 39 40 43 42 41 41 42 44 40 39 34 38 37 37 33 36 36 27 31 26 30 31 28 31 33 34 32 30 30 31 39 34 35 32 34 34 32 32
39 40 39 37 37 39 38 41 41 44 40 41 43 40 40 43 41 38 40 39 39 35 32 32 28 24 27 26 27 21 24 30 32 32 32 27 34 26 31 32 32 31 32 33 32

GFSSW_sfc_temp_030.txt.gz
Temp
63 63 64 64 64 64 64 64 64 64 64 64 64 63 63 63 63 59 60 67 67 70 68 63 64 63 62 58 57 52 46 42 45 47 49 53 53 55 55 53 57 58 55 59 61
63 63 63 64 63 64 64 64 63 64 64 63 63 63 63 63 57 58 69 72 71 70 64 61 58 60 56 55 55 50 44 47 50 49 48 52 51 53 55 54 51 55 58 57 54
62 63 63 63 63 63 63 63 63 63 63 63 63 63 62 60 60 61 70 72 71 68 65 63 62 59 53 52 50 47 47 50 53 54 53 52 51 52 50 51 51 53 54 52 49
62 62 62 62 63 63 63 63 63 63 63 63 63 62 62 57 51 62 70 71 70 65 64 62 60 53 49 48 52 46 52 52 55 55 53 51 54 51 53 52 55 50 49 47 46
61 61 61 62 62 63 63 63 63 63 63 63 63 62 58 55 60 63 67 67 65 63 61 59 55 53 48 50 52 48 50 53 55 54 53 53 53 50 54 54 52 50 48 45 44
61 61 61 61 62 63 63 63 63 62 62 63 63 62 56 52 63 64 64 63 63 62 59 60 58 58 53 50 50 50 51 53 55 53 52 53 49 50 49 51 49 47 43 42 43
61 61 60 61 61 62 62 62 62 62 62 63 63 59 55 60 62 62 64 61 62 62 59 59 61 57 55 50 53 51 48 51 51 50 52 52 48 50 51 51 45 42 40 42 42
61 60 60 60 61 61 61 61 61 61 62 62 62 55 55 61 60 62 62 60 62 63 62 60 60 58 53 53 52 46 44 41 49 49 49 50 46 52 52 50 43 41 39 40 42
60 60 60 60 60 61 61 61 61 62 63 62 54 53 55 64 58 60 60 60 60 60 60 65 58 51 51 46 42 41 38 38 46 49 48 47 45 52 51 47 40 38 39 40 40
60 59 60 60 60 60 61 61 61 60 60 60 61 51 56 56 57 59 58 60 57 56 56 55 48 44 41 42 37 38 36 39 41 45 46 43 47 52 50 46 38 36 37 38 38
60 60 60 60 60 61 59 55 54 52 50 55 54 54 56 56 58 55 57 57 55 53 46 45 43 41 44 46 44 42 39 40 41 47 43 45 44 49 45 39 37 36 36 37 38
60 60 60 60 60 61 57 52 53 54 50 56 55 56 57 57 52 54 59 53 50 45 44 42 40 48 47 45 44 41 39 39 43 46 45 43 44 44 41 39 39 37 36 37 37
59 59 59 60 60 59 55 54 57 54 47 53 54 53 55 57 53 53 57 51 46 43 42 41 47 48 48 42 41 39 38 37 42 41 40 36 39 37 37 38 38 38 38 37 36
59 59 59 60 57 57 54 58 57 55 41 46 49 52 54 55 49 53 54 52 45 45 42 42 46 47 42 42 43 37 43 43 40 37 33 37 30 36 35 34 35 35 34 34 35
59 59 59 60 55 55 58 57 56 56 29 47 47 56 53 51 48 48 52 50 44 44 44 43 42 41 41 43 45 41 43 40 38 35 31 33 30 35 35 33 32 33 34 34 34
58 58 58 58 58 56 56 57 57 45 30 42 46 46 47 47 45 47 47 50 48 43 40 43 44 45 45 42 45 44 41 38 34 33 25 35 35 32 33 37 33 34 34 35 34
58 58 57 61 56 58 56 56 42 35 45 41 40 43 43 43 43 43 41 40 39 34 34 38 41 43 45 41 40 40 37 29 26 24 26 31 29 35 37 36 37 35 34 34 34
58 58 58 61 59 59 53 46 34 43 41 43 43 41 41 43 42 41 39 37 41 37 33 33 32 42 45 44 40 38 38 30 23 21 26 30 27 36 34 35 36 38 36 34 33
58 57 57 59 59 57 48 39 41 44 47 43 42 37 37 41 41 39 37 37 41 41 39 33 36 40 41 42 44 37 34 38 29 15 21 30 32 34 33 31 32 32 33 33 33
56 55 55 62 59 54 45 42 44 50 49 47 43 43 35 38 38 38 36 41 42 43 44 41 34 38 39 42 40 39 42 33 29 19 17 27 28 33 32 32 30 31 32 32 34
55 50 56 61 56 49 41 43 48 52 53 48 47 41 40 38 41 36 39 41 44 41 45 42 40 33 38 37 36 36 33 34 35 30 22 17 28 35 36 33 31 33 35 34 34
51 45 53 58 47 47 44 48 49 48 51 49 48 46 43 43 40 37 38 43 47 45 41 43 37 28 34 35 36 34 36 35 32 26 24 25 32 34 35 35 37 36 36 35 35
46 44 51 53 43 44 46 48 49 46 48 46 46 48 47 43 40 40 40 42 46 46 42 43 34 22 28 33 33 32 34 34 31 27 22 28 29 36 32 34 35 34 34 35 35
44 40 44 45 44 43 45 44 43 46 47 47 46 46 42 41 43 40 39 40 41 43 47 47 34 32 32 32 34 29 32 32 34 30 31 32 35 31 34 36 34 35 35 35 35
44 40 44 38 41 41 44 44 42 39 44 46 41 46 45 37 39 38 39 38 40 43 41 43 32 32 33 34 34 33 33 30 30 35 33 35 32 33 37 36 37 36 35 34 34
39 38 39 39 43 41 41 40 41 40 41 39 39 41 43 39 39 36 39 38 38 36 37 37 31 30 25 30 32 29 32 31 34 31 31 30 30 39 37 36 34 35 36 34 34
39 40 39 39 38 39 39 38 40 42 40 42 42 40 39 43 43 39 41 41 41 37 34 33 28 25 27 26 27 25 28 31 31 31 35 27 36 29 31 33 32 32 32 33 33

GFSSW_sfc_temp_033.txt.gz
Temp
63 63 64 64 64 64 64 64 64 64 64 64 64 63 63 63 63 59 60 66 67 70 69 64 66 64 63 60 59 56 49 45 49 50 54 58 58 61 61 62 62 64 61 56 56
63 63 63 63 63 64 64 64 64 64 64 64 64 63 63 63 58 59 68 72 71 70 65 63 60 62 58 58 57 53 47 51 54 54 55 57 57 58 60 59 60 62 58 55 54
62 62 63 63 63 63 63 63 63 63 64 63 63 63 63 59 60 60 70 72 70 68 66 64 63 61 55 56 54 51 51 53 56 57 58 56 56 58 57 55 59 58 55 52 51
62 62 62 62 63 63 63 63 63 63 63 63 63 63 62 58 50 61 69 70 70 66 65 63 60 55 52 51 54 51 53 54 57 57 56 55 57 56 56 57 53 50 50 48 48
61 61 61 62 62 63 63 63 63 63 63 63 63 62 59 56 60 63 67 67 64 64 62 60 57 55 52 53 53 51 52 54 56 55 55 54 55 56 54 50 50 49 47 46 46
61 61 61 61 62 62 63 63 63 62 62 63 63 62 56 52 62 63 64 63 63 63 59 60 59 58 54 52 52 53 52 54 55 55 54 54 52 54 52 49 47 46 44 44 44
61 61 60 61 61 62 62 62 62 62 62 63 63 59 54 60 62 62 63 60 61 62 60 59 61 58 56 51 54 52 50 53 53 52 54 54 49 51 53 49 45 43 43 43 43
61 60 60 60 61 61 61 61 61 62 62 63 63 55 55 60 60 62 62 60 62 63 62 60 61 58 55 54 52 48 47 44 51 51 51 53 48 51 51 50 44 42 42 42 43
60 60 60 60 60 60 61 61 61 62 63 62 54 52 54 62 58 59 60 60 59 60 60 64 58 52 53 47 44 43 41 41 48 51 50 50 49 51 51 48 42 41 41 42 42
60 59 60 60 60 60 61 61 61 60 60 60 60 51 55 55 56 58 57 60 57 56 56 55 49 45 43 44 38 40 39 41 42 48 48 46 49 49 49 46 41 39 40 40 40
60 60 60 60 60 61 59 54 53 51 50 55 54 52 55 55 57 55 57 57 55 53 46 46 44 42 45 46 45 43 41 43 43 48 46 46 46 51 44 40 38 38 39 39 40
60 60 60 60 60 61 59 51 52 53 49 55 53 55 57 58 52 53 58 53 50 45 45 43 40 48 47 46 45 42 40 40 44 46 45 44 44 47 43 41 41 39 38 39 39
60 59 59 60 60 59 56 54 57 54 47 52 52 53 54 57 54 52 57 51 46 42 42 41 46 47 47 42 42 40 40 38 42 42 42 40 41 40 38 39 39 39 39 39 39
59 59 59 59 56 57 55 59 58 55 40 45 49 52 53 55 49 53 55 53 45 44 42 42 46 46 42 42 43 37 43 43 41 39 35 40 33 39 37 35 36 36 36 37 38
59 59 59 59 54 55 58 57 56 55 28 46 46 54 51 51 48 48 52 51 44 44 44 42 41 41 40 43 45 41 42 41 39 37 35 35 33 37 36 36 34 35 35 36 37
59 58 58 57 57 56 56 57 56 43 30 41 45 45 46 46 45 47 48 51 48 43 40 42 43 44 45 42 44 43 40 38 35 34 27 36 36 35 36 39 34 36 36 36 36
58 58 57 61 56 57 57 55 41 34 45 39 40 43 42 42 43 44 42 40 38 34 34 38 41 43 44 40 41 39 38 29 27 26 27 33 31 38 41 39 39 38 36 36 36
58 58 57 61 59 58 54 46 34 42 40 41 41 41 40 42 40 40 38 37 40 37 33 33 32 42 45 43 40 37 39 30 23 23 27 30 28 38 37 36 37 39 38 37 35
58 57 56 59 59 57 49 39 39 41 46 42 41 36 36 40 40 37 36 36 42 42 41 33 35 40 42 43 45 38 35 39 28 15 22 31 34 39 35 34 34 34 35 35 35
55 55 55 61 58 54 45 41 43 49 47 45 42 42 34 36 37 36 35 40 41 45 46 41 34 38 39 42 40 40 43 33 30 22 19 28 30 35 34 35 32 31 34 35 35
55 50 56 61 55 50 40 41 47 51 51 46 44 41 38 36 38 34 37 39 44 42 47 42 40 34 39 37 37 36 35 34 36 32 24 20 29 37 39 37 33 34 36 36 35
52 46 55 58 46 48 43 45 49 50 51 49 49 49 45 41 38 36 37 44 46 46 41 43 39 29 34 36 37 35 37 37 32 26 25 26 33 36 37 38 37 36 37 36 38
47 47 52 55 42 43 46 47 49 47 49 50 48 49 49 43 40 39 38 44 46 46 43 43 36 26 31 34 33 33 34 35 33 29 24 25 29 36 34 34 35 35 35 37 36
45 39 44 46 44 46 44 44 44 50 49 50 47 47 43 45 47 41 38 39 42 44 47 50 36 35 36 35 35 30 32 33 36 24 30 34 36 33 35 36 34 35 35 35 36
45 41 44 39 41 42 42 44 43 41 47 50 44 47 45 40 41 42 40 38 40 44 41 43 34 32 34 35 35 34 33 32 33 38 33 38 34 37 37 37 38 37 35 34 35
41 39 40 40 44 41 41 39 40 44 41 41 43 46 48 44 44 41 41 39 39 37 38 37 33 32 29 32 33 30 34 33 35 35 35 34 32 40 40 36 35 35 35 34 35
40 40 41 40 38 39 41 42 40 43 41 42 44 41 41 45 41 39 43 43 41 38 35 34 31 31 31 27 29 27 30 32 32 32 37 30 40 33 35 36 35 34 35 35 35

GFSSW_sfc_temp_036.txt.gz
Temp
63 63 64 64 64 64 64 64 64 64 64 64 64 64 64 64 64 70 74 74 75 71 70 79 80 78 78 73 72 72 70 63 64 64 68 71 71 73 73 74 74 71 69 64 66
63 63 63 64 64 64 64 64 64 64 64 64 64 64 64 63 71 73 72 72 71 70 78 77 75 76 75 71 72 72 68 65 70 71 70 70 71 71 71 71 71 69 66 65 67
63 63 63 63 63 64 64 64 63 63 64 64 64 63 63 65 74 73 70 72 71 73 78 77 77 75 70 71 68 66 68 67 68 70 71 69 69 71 70 68 69 68 64 62 64
62 62 62 63 63 63 64 63 63 63 63 63 63 63 63 71 65 73 70 71 71 77 77 75 75 71 68 66 67 66 66 67 66 67 67 67 70 68 69 66 62 61 60 61 61
61 61 61 62 62 63 63 63 63 63 63 63 63 63 70 71 72 73 67 70 75 76 75 73 72 69 67 66 66 65 65 65 67 65 66 65 67 68 65 60 60 59 58 59 59
61 61 61 61 62 63 63 63 63 63 63 63 63 63 72 66 71 73 72 72 75 76 73 74 72 72 67 66 65 66 64 66 66 66 65 64 65 65 60 60 58 58 58 57 56
61 61 61 61 61 62 62 62 62 62 63 63 63 67 68 71 73 74 73 72 73 75 72 72 73 71 69 63 65 64 63 66 67 65 65 65 58 61 63 60 57 55 55 54 54
61 60 60 60 61 61 62 62 62 62 63 63 63 69 68 70 74 71 73 71 73 74 73 73 74 69 67 66 64 61 61 59 63 62 62 63 61 62 61 60 58 55 55 54 52
60 60 60 60 60 60 61 61 61 63 63 64 66 67 65 68 67 71 73 71 70 71 71 71 71 65 65 63 59 58 57 56 59 62 61 61 61 62 61 61 58 56 54 53 53
60 59 60 60 60 60 61 62 62 63 64 65 67 63 64 63 65 67 70 70 68 67 67 66 65 62 61 61 54 55 54 54 57 61 59 59 62 60 60 59 57 55 54 53 52
59 60 60 60 60 61 63 64 61 60 59 64 63 63 62 64 67 64 68 68 68 66 60 59 59 54 61 63 61 59 56 57 58 59 58 60 61 62 58 56 54 53 53 52 51
61 60 60 60 60 61 62 60 62 63 58 62 61 61 64 65 59 61 67 64 62 58 57 56 53 63 58 58 57 55 55 56 57 56 56 59 57 64 55 57 57 54 52 52 50
60 60 60 60 60 59 60 60 64 64 58 59 59 60 61 64 62 59 64 61 58 52 55 57 58 58 56 52 52 53 53 55 54 53 54 53 54 58 53 49 50 52 54 52 52
60 59 59 59 56 61 57 65 65 65 53 55 55 59 58 63 57 59 64 62 56 55 54 56 57 53 53 53 56 51 56 54 51 50 47 52 47 53 54 49 46 47 49 50 50
60 59 59 59 62 57 62 64 65 64 37 55 51 61 58 59 56 53 60 60 54 52 55 55 49 50 51 54 55 53 52 52 51 49 46 47 45 54 47 47 45 47 49 50 50
59 59 58 57 59 62 60 61 63 49 36 46 51 50 52 52 51 54 56 60 58 52 52 53 53 54 56 50 54 51 50 48 47 47 38 47 46 51 51 52 51 48 48 48 48
58 58 57 61 55 60 61 59 45 38 54 45 46 49 50 47 47 50 49 50 50 45 46 48 50 52 52 48 49 52 50 41 37 36 36 41 42 52 57 50 52 47 47 48 48
58 58 58 61 62 59 56 47 36 50 52 48 47 47 46 47 47 46 45 47 51 49 46 43 41 48 52 54 49 48 51 43 32 33 40 36 37 49 47 46 46 51 50 48 47
58 57 57 59 60 57 48 39 41 50 56 47 46 44 44 46 48 45 47 48 52 50 47 43 43 48 48 50 55 46 42 50 36 27 35 45 46 52 43 43 43 45 46 45 45
55 54 55 61 60 53 45 41 46 57 53 53 47 50 43 44 44 45 44 51 48 51 56 51 44 45 46 51 49 49 51 39 41 31 31 42 43 49 43 45 42 41 43 46 46
54 50 57 60 57 49 40 42 49 56 57 51 51 49 48 44 47 43 48 50 54 48 53 51 47 41 45 44 46 42 43 44 46 42 36 37 45 54 54 51 45 45 45 47 46
52 45 56 58 45 47 42 47 52 53 54 55 54 54 49 47 45 44 45 55 55 51 45 51 46 37 41 45 45 51 48 47 41 33 37 36 44 47 50 52 50 49 46 48 48
48 48 55 55 42 41 46 46 51 50 52 52 49 52 54 48 44 48 48 53 52 51 48 49 42 35 36 40 41 41 43 46 46 37 36 35 41 44 44 45 47 48 47 46 46
46 41 45 50 49 46 43 44 43 52 51 53 53 51 46 47 50 49 47 46 49 53 49 52 43 41 39 44 47 38 41 42 44 38 41 40 47 44 45 45 46 45 47 47 45
46 42 44 39 44 46 47 45 43 43 49 52 47 49 48 42 44 45 47 41 43 46 46 49 38 44 47 46 44 43 42 41 41 45 42 48 45 48 48 48 51 52 47 45 44
43 40 42 40 44 44 43 43 43 45 44 44 44 48 49 44 45 42 46 46 43 41 42 41 38 42 37 46 41 38 42 42 42 45 47 48 45 54 53 49 47 46 43 43 45
41 42 44 41 39 40 42 43 42 44 41 44 45 45 44 48 52 50 44 48 47 42 39 38 38 32 32 39 34 29 37 41 42 46 46 41 45 43 43 44 48 47 45 45 46

GFSSW_sfc_temp_042.txt.gz
Temp
64 64 64 64 64 64 65 65 64 64 64 64 65 64 64 64 65 71 76 72 74 72 70 80 80 78 79 73 72 69 57 56 58 59 63 69 66 67 67 67 66 66 61 61 64
63 64 64 64 64 64 64 64 64 64 64 64 64 64 64 64 71 75 70 72 72 71 77 77 75 75 71 69 69 62 56 60 67 67 64 68 67 68 64 66 60 60 63 65 65
63 63 63 64 64 64 64 64 63 64 64 64 64 64 63 63 70 72 71 72 72 72 79 79 78 75 67 67 65 63 58 65 67 68 69 68 63 66 62 62 62 63 61 63 63
63 63 63 63 63 64 64 64 63 63 63 63 63 63 63 72 62 73 70 72 71 75 78 75 74 67 63 62 68 58 65 67 67 65 66 64 66 62 64 57 64 62 63 62 60
62 62 62 62 63 63 63 63 63 63 63 63 63 63 71 70 71 75 68 70 76 76 75 73 70 68 62 65 64 61 64 66 67 63 63 66 61 63 60 60 62 62 63 59 58
61 61 61 61 62 63 63 63 63 63 63 63 64 62 70 64 75 79 75 72 77 76 73 73 71 71 66 64 60 63 64 65 66 65 64 60 61 61 62 61 59 61 58 56 56
61 61 61 61 61 62 62 62 62 62 63 64 64 70 69 68 77 77 76 73 74 76 72 73 74 67 67 62 65 63 57 62 63 64 61 61 56 58 62 61 59 58 55 55 56
61 61 60 60 61 61 61 62 62 61 63 64 64 69 64 73 75 74 76 73 75 75 74 73 72 68 64 64 63 57 56 50 61 63 59 57 50 61 60 58 56 56 54 54 54
61 60 60 60 60 60 61 61 61 62 63 64 66 66 63 69 70 75 75 72 72 72 70 76 69 63 61 55 52 55 47 52 54 62 58 55 52 57 60 59 56 55 55 55 53
60 60 60 60 60 60 60 61 63 62 64 69 70 60 66 64 67 71 71 72 68 66 65 64 61 55 55 53 44 49 48 54 51 57 57 53 52 57 58 58 57 55 55 53 53
60 60 60 60 60 61 60 61 59 57 61 62 63 65 66 65 68 66 70 68 68 63 55 59 51 48 55 58 60 57 53 51 55 57 54 54 55 60 58 56 55 55 54 53 52
60 60 60 60 60 60 61 61 59 60 54 64 64 66 68 67 60 63 68 61 59 53 58 51 47 58 62 61 57 56 52 50 56 57 52 53 53 59 58 57 58 59 54 53 49
60 60 60 60 60 59 60 62 67 65 54 62 65 63 63 64 61 59 63 61 56 54 55 51 56 61 59 55 54 53 50 50 51 52 51 47 46 53 59 60 59 59 57 55 49
59 59 59 60 56 61 57 65 67 65 48 56 58 62 62 63 57 65 65 61 57 53 55 54 61 56 55 53 55 48 56 55 52 46 39 48 35 48 55 57 56 57 53 51 50
58 58 59 60 62 57 63 65 66 60 32 58 57 64 62 59 57 54 61 58 53 53 55 51 51 50 50 53 57 50 54 51 48 44 40 41 39 45 54 54 55 54 50 50 50
58 58 58 57 59 63 64 63 60 45 33 50 52 51 52 56 53 54 53 58 57 54 53 52 53 53 53 52 53 54 50 47 44 42 31 42 42 41 51 54 55 52 51 50 49
57 57 56 60 54 63 63 56 38 33 57 49 46 50 51 49 49 51 48 46 47 42 43 48 49 52 53 47 49 50 44 33 29 27 29 42 39 46 53 53 55 52 51 50 49
57 57 57 59 62 59 56 45 30 42 48 55 53 50 46 49 47 48 46 43 49 50 47 41 39 49 52 52 46 44 46 33 27 27 30 34 32 43 48 49 51 55 53 52 49
57 56 56 58 59 56 49 35 35 44 52 52 50 45 44 47 46 45 45 46 51 52 46 46 44 51 51 53 54 44 39 50 36 26 26 36 41 50 45 43 44 47 49 49 48
53 53 54 60 59 53 45 37 40 52 56 55 46 50 42 44 42 43 43 50 51 55 57 52 43 47 45 50 49 46 49 36 35 22 23 34 38 42 39 43 42 45 47 48 48
51 46 55 61 56 48 39 39 45 55 57 51 50 51 52 46 44 42 46 51 55 54 57 52 45 38 44 41 42 40 39 42 43 35 27 27 37 50 50 49 44 46 48 48 47
49 41 57 58 45 46 42 45 50 51 56 55 55 53 53 53 45 44 44 51 58 56 48 52 46 33 38 46 47 47 44 44 33 32 35 31 40 49 48 50 48 47 48 48 48
44 46 56 55 41 42 45 45 49 50 51 52 51 56 58 53 47 48 49 56 57 53 48 50 40 31 33 38 41 40 44 47 47 35 37 30 37 45 45 46 47 46 46 48 47
43 39 46 49 48 45 43 43 42 51 50 54 53 53 51 50 55 47 48 51 54 54 51 53 42 38 37 40 43 35 40 44 44 35 35 39 43 40 43 43 45 45 46 46 47
43 41 45 39 42 44 45 44 41 41 49 52 49 48 47 43 46 48 50 45 47 48 50 50 38 42 45 48 44 39 38 42 40 43 38 43 44 51 48 45 48 47 46 46 46
39 40 42 41 45 43 42 40 40 43 45 43 44 47 48 43 44 44 49 49 44 43 44 44 37 41 39 41 41 39 42 41 42 43 45 46 44 52 54 52 46 47 46 45 45
46 44 41 40 39 38 37 40 40 44 46 49 48 47 46 48 54 55 54 51 49 44 39 38 35 33 33 38 37 32 37 41 43 45 45 39 47 51 50 47 46 46 46 45 45

GFSSW_sfc_temp_045.txt.gz
Temp
64 64 64 64 64 64 64 64 64 64 64 64 64 64 64 64 65 67 68 70 70 72 70 71 71 70 70 65 65 60 51 48 52 54 56 62 60 63 63 63 60 59 56 58 63
63 63 64 64 64 64 64 64 64 64 64 64 64 64 64 63 65 67 69 72 72 71 70 68 66 68 63 62 62 55 48 51 57 57 57 63 61 63 60 58 54 54 58 60 60
63 63 63 63 63 64 64 63 63 63 64 63 64 64 63 62 64 65 70 72 72 71 71 70 69 67 59 60 58 55 51 57 59 60 62 63 60 61 61 54 57 57 57 58 57
62 62 62 62 63 63 63 63 63 63 63 63 63 63 62 63 54 67 70 71 71 71 71 68 65 59 56 55 61 52 59 60 61 61 61 58 61 58 58 55 57 58 58 56 55
61 61 61 62 62 63 63 63 63 63 63 63 64 63 64 61 63 70 68 69 69 70 67 67 62 60 55 58 59 54 57 61 61 59 58 61 57 57 54 54 58 59 58 54 53
61 61 61 61 61 62 62 63 63 62 62 63 64 63 61 55 70 72 70 68 70 68 67 68 63 63 59 58 56 57 58 59 60 60 59 58 55 56 54 54 55 56 53 52 53
62 61 60 60 61 61 62 62 62 62 62 63 64 65 59 62 70 70 71 67 68 68 66 67 66 63 60 56 59 58 53 56 58 59 57 58 53 56 56 55 54 52 50 51 53
61 61 61 60 60 61 61 61 61 62 62 63 64 59 57 67 65 70 69 66 68 69 68 66 66 63 59 58 57 51 50 45 55 58 56 56 47 55 55 53 51 50 48 50 51
61 60 61 60 60 60 60 61 61 62 63 63 58 55 55 67 64 68 67 66 66 66 66 72 64 58 57 50 46 46 41 45 52 56 54 52 49 52 54 54 50 49 48 49 49
60 60 60 60 60 60 60 61 61 60 63 65 66 54 60 59 62 66 65 68 63 61 61 59 55 49 48 45 39 43 42 48 47 54 51 48 49 52 54 54 51 49 48 48 48
60 60 60 60 60 60 58 56 53 52 54 56 57 58 60 60 64 61 65 65 63 56 49 52 46 43 48 51 51 48 45 45 49 54 51 49 49 53 54 51 50 48 49 49 49
60 60 60 60 60 60 55 52 56 56 50 59 60 61 63 62 56 59 65 57 55 49 52 48 43 52 55 53 52 50 46 46 50 53 50 49 48 53 52 53 55 54 52 51 45
59 59 60 60 60 58 54 56 62 59 48 55 59 58 59 61 57 55 60 56 51 48 49 44 51 56 54 51 50 48 46 44 48 48 47 44 42 48 54 54 55 57 56 53 47
59 58 59 59 55 56 52 60 62 59 41 48 54 58 59 59 53 60 62 58 52 49 49 48 56 53 51 49 51 44 51 51 49 43 37 44 36 44 49 51 51 56 51 51 46
58 58 58 59 56 54 60 63 61 55 28 51 52 61 57 58 55 52 57 56 49 50 51 47 49 48 50 51 53 47 50 48 45 41 36 38 35 42 49 50 55 54 54 50 48
58 58 58 56 56 58 62 62 58 42 29 46 49 49 50 51 50 51 53 57 56 52 49 49 50 51 51 48 51 51 47 45 42 39 29 39 38 38 48 52 57 52 49 47 46
56 57 56 59 53 60 61 50 33 29 46 43 42 47 47 46 46 47 46 45 46 41 40 45 46 48 51 47 49 48 42 31 28 26 30 39 36 46 49 53 54 52 46 46 46
56 57 56 58 59 57 55 41 30 38 39 48 47 44 42 46 44 45 43 42 47 45 42 41 37 46 49 49 46 42 43 32 26 25 28 34 31 42 51 53 48 52 51 47 45
55 55 54 57 59 57 49 32 35 41 47 46 46 39 39 43 43 42 40 45 48 49 46 40 40 47 48 52 54 41 39 48 35 21 24 33 39 46 45 45 44 45 47 46 45
49 52 51 59 58 53 45 37 37 50 50 51 43 44 37 40 40 39 39 45 46 53 52 50 39 43 44 51 47 45 47 35 32 22 21 30 33 40 41 45 43 43 44 43 44
48 45 52 59 56 48 39 38 43 50 52 50 45 44 43 40 41 37 40 44 50 49 55 50 45 35 42 39 41 41 38 40 41 32 27 27 36 45 48 49 44 44 45 46 44
44 39 53 57 45 45 41 45 48 49 53 50 51 49 47 46 42 39 39 46 52 52 46 52 44 30 37 42 45 42 42 40 35 31 30 29 41 47 45 45 46 45 46 47 47
41 41 52 53 39 40 45 45 48 47 49 49 49 50 52 49 43 44 43 50 52 52 47 49 40 32 32 37 39 39 42 48 43 31 35 29 39 44 42 43 44 42 43 45 45
42 36 41 44 46 43 43 43 43 49 48 51 50 51 49 46 51 45 44 49 50 53 50 53 41 42 39 40 41 36 40 42 44 35 35 39 44 41 42 45 43 42 43 44 45
41 36 40 37 38 40 43 43 43 42 47 49 45 46 46 41 43 43 48 46 48 48 50 50 38 39 45 43 42 38 39 41 40 43 38 44 44 50 51 46 46 44 42 43 43
38 37 38 39 42 41 40 40 37 41 44 42 42 46 46 42 45 42 47 48 45 43 48 46 37 40 38 42 40 38 39 41 43 44 45 46 45 50 52 48 44 45 44 43 44
44 40 41 39 37 36 38 39 42 44 44 46 46 44 43 47 52 54 53 51 47 42 41 40 39 35 33 39 37 32 39 42 42 44 44 39 47 48 50 51 45 43 44 45 46

GFSSW_sfc_temp_048.txt.gz
Temp
64 64 64 64 64 64 64 64 64 64 64 64 64 64 64 64 65 65 64 68 68 71 69 69 69 67 66 63 62 56 49 45 47 51 54 57 58 59 59 59 55 56 54 55 61
63 63 63 63 63 64 64 64 63 63 64 64 64 64 64 63 63 65 70 71 72 71 68 65 62 65 61 60 59 53 46 51 54 53 54 59 59 61 58 55 51 51 54 56 59
62 62 63 63 63 63 63 63 63 63 63 63 64 64 63 61 62 64 70 72 72 70 67 67 66 63 58 57 54 52 50 55 56 57 59 59 56 58 57 52 55 55 55 55 54
62 62 62 62 62 63 63 63 63 63 63 63 63 64 62 61 52 65 70 71 71 67 67 65 63 57 54 53 58 51 55 57 59 58 59 58 59 57 56 57 57 58 56 53 53
61 61 61 61 62 62 63 63 63 62 62 63 63 63 62 59 62 68 68 68 67 67 64 63 59 57 54 54 56 52 54 58 58 58 56 58 55 56 54 50 54 56 56 53 52
62 60 60 61 61 62 62 62 62 62 62 63 63 63 59 53 67 69 66 66 67 65 63 63 60 61 58 55 54 56 55 56 58 57 57 57 53 55 52 52 52 54 51 50 51
62 62 60 60 61 61 61 62 62 62 62 63 64 62 57 61 67 67 67 65 65 65 63 63 63 60 58 55 57 55 51 53 56 56 55 56 51 54 53 52 51 50 48 49 50
61 61 61 60 60 60 61 61 61 61 62 63 63 57 55 65 63 66 66 64 66 67 65 64 64 62 58 57 56 49 48 44 52 55 54 55 46 54 51 51 49 48 46 48 49
60 60 60 61 60 60 60 60 60 61 62 63 57 53 54 66 62 66 64 64 63 64 64 70 63 55 56 49 44 44 40 42 49 54 52 51 47 52 49 50 48 46 46 47 47
60 60 60 60 60 60 60 61 60 60 62 63 63 52 57 58 61 64 62 65 61 59 59 58 52 47 45 44 38 40 40 43 44 50 48 45 48 50 50 50 50 47 46 46 47
60 60 60 60 60 60 58 55 54 52 51 55 55 55 57 59 62 60 63 62 60 56 48 49 45 43 47 49 48 46 43 43 46 53 49 47 48 53 51 48 47 47 47 47 48
60 60 60 60 60 60 54 52 54 55 48 57 56 58 60 61 54 58 63 56 53 48 49 45 42 51 51 50 49 46 43 42 47 51 49 47 46 50 49 50 53 53 51 50 45
59 59 59 60 60 57 52 54 58 57 46 53 56 55 58 59 56 55 60 54 50 47 47 44 50 53 52 47 46 45 42 41 46 45 45 41 40 46 52 51 52 55 57 54 49
58 58 58 59 55 54 51 59 59 56 38 46 51 56 56 58 52 59 61 56 49 47 46 45 52 51 47 47 49 41 49 48 46 41 36 41 34 42 47 49 50 55 53 53 49
57 58 58 59 56 53 58 61 60 55 27 50 51 59 55 56 52 51 56 53 47 48 49 46 47 47 46 48 51 46 49 46 43 38 34 36 33 39 44 45 50 57 53 51 48
56 57 57 56 56 57 60 60 56 40 27 44 48 48 48 50 48 49 52 54 53 49 47 47 49 51 51 49 52 50 46 42 38 37 29 39 37 36 44 51 52 56 56 50 47
56 56 56 59 53 59 60 51 33 29 44 42 41 46 46 44 45 46 45 45 45 40 41 43 45 48 50 47 47 47 43 30 28 26 30 36 33 45 48 51 55 58 53 46 46
56 56 56 58 58 58 53 41 29 36 40 47 45 42 41 44 43 44 42 42 47 44 39 40 36 46 49 50 45 42 42 32 25 24 28 33 30 40 48 54 49 48 48 43 42
55 51 54 55 57 57 46 33 36 40 46 46 46 41 40 41 41 40 39 43 47 47 45 39 40 44 46 49 54 42 38 47 35 18 23 33 38 45 46 47 47 47 43 40 41
46 46 49 57 58 53 43 36 38 46 49 49 42 44 37 38 39 38 37 43 44 50 50 47 36 40 41 47 44 44 47 35 31 22 20 29 31 39 40 45 49 48 41 40 40
44 42 49 57 56 47 38 41 44 48 51 47 45 43 41 40 40 36 39 43 48 46 53 49 43 34 40 39 40 39 38 38 39 32 26 22 34 42 49 48 48 48 44 41 40
45 37 49 56 43 43 40 44 47 46 51 48 49 47 43 42 41 38 38 45 49 49 44 48 44 29 36 40 40 38 39 38 31 29 29 28 39 47 46 47 47 48 45 42 43
40 39 49 52 35 37 44 46 47 46 48 48 45 47 49 46 41 40 40 47 49 50 45 48 40 28 31 36 37 37 41 47 40 32 31 30 39 42 42 44 46 46 43 41 41
39 32 39 42 44 41 39 41 41 49 47 48 49 50 46 46 47 40 40 47 49 49 49 52 41 38 36 37 41 34 37 40 44 37 37 39 45 41 45 45 47 44 41 40 41
37 36 37 34 36 38 40 42 40 40 47 47 43 44 45 39 42 43 45 44 46 47 48 49 38 39 46 43 43 40 38 41 40 44 39 46 43 51 51 48 49 47 42 40 40
35 35 37 35 38 40 39 37 38 38 41 42 41 45 46 42 44 41 43 45 45 44 45 45 39 42 39 44 40 37 39 42 43 44 45 46 46 51 51 47 44 46 42 41 41
40 42 39 37 36 32 35 38 39 43 45 44 42 42 43 45 50 52 50 49 49 46 43 44 39 36 33 40 35 31 39 40 42 46 44 39 48 47 50 50 47 45 44 44 44

GFSSW_sfc_temp_051.txt.gz
Temp
63 63 64 64 63 64 64 64 64 64 64 64 64 64 64 64 64 63 62 67 66 71 68 66 66 65 64 60 59 53 48 44 48 49 52 57 56 56 54 56 51 53 52 54 58
63 63 63 63 63 63 63 63 63 63 63 63 64 64 64 63 61 62 69 71 71 71 65 63 60 63 59 57 57 51 45 50 54 52 52 56 55 59 56 52 48 48 52 54 55
62 62 62 62 63 63 63 63 63 63 63 63 63 63 63 60 60 62 70 72 72 70 65 64 63 61 55 55 52 49 49 53 54 55 57 57 53 55 55 50 55 55 54 54 52
61 61 62 62 62 63 63 63 63 63 63 63 63 63 62 58 50 63 70 71 71 65 65 63 61 55 52 51 55 49 52 55 56 56 56 56 57 55 55 55 54 57 55 52 52
61 61 61 61 62 62 62 62 62 62 62 63 63 63 61 56 60 66 68 68 66 65 62 61 57 55 51 53 54 50 52 55 55 55 53 56 53 54 55 50 51 54 54 52 51
62 61 60 60 61 62 62 62 62 62 62 63 63 63 57 52 65 66 65 64 65 63 61 61 59 58 56 52 52 53 54 54 55 54 54 55 51 52 52 49 50 52 51 50 50
61 61 61 60 61 61 61 61 62 62 62 63 63 61 54 60 64 64 65 63 63 63 60 61 61 58 56 52 55 53 50 52 53 54 53 54 51 53 52 50 50 50 48 49 49
61 60 60 60 60 60 61 61 61 61 62 63 63 56 54 63 61 64 64 62 64 65 63 62 62 60 56 55 54 48 46 43 50 52 51 53 45 54 51 49 49 47 46 47 49
60 60 60 60 60 60 60 60 60 61 62 63 56 52 54 65 59 63 62 61 61 62 63 68 61 53 53 47 43 43 39 39 48 52 49 48 45 50 47 48 48 46 45 46 46
60 60 60 60 60 60 60 61 60 59 61 62 62 51 55 55 58 61 60 63 58 57 58 57 50 46 44 44 38 39 37 40 41 48 46 44 46 51 47 47 50 46 45 45 46
60 60 60 60 60 60 57 54 54 52 51 55 53 53 55 57 60 58 60 60 57 55 48 48 45 42 46 47 45 44 40 41 44 49 47 46 47 52 50 45 45 46 46 47 48
60 59 60 60 60 60 54 51 53 54 49 55 54 56 58 58 52 56 61 55 51 46 47 45 42 50 50 47 46 42 40 40 45 48 47 45 45 49 47 48 51 51 51 50 50
58 59 59 60 60 57 52 53 57 55 46 51 54 53 56 58 54 54 59 53 48 45 45 43 48 50 50 45 44 42 41 40 43 43 42 40 40 45 52 49 51 52 56 55 53
58 58 58 58 55 54 51 58 58 55 39 44 49 53 55 57 51 58 59 54 47 46 44 44 49 48 45 44 47 40 46 46 43 40 35 40 33 41 45 49 49 55 52 54 53
57 57 58 59 55 52 58 58 58 58 29 47 48 58 52 54 51 49 54 52 46 47 47 45 45 45 43 45 48 44 46 44 41 36 34 35 33 38 41 44 51 55 55 55 51
56 56 57 56 56 57 59 58 55 38 27 42 47 46 47 48 46 49 50 53 51 47 44 45 47 48 48 47 49 48 44 41 36 35 28 40 37 36 42 48 50 56 58 52 48
56 56 54 58 52 58 58 51 34 29 44 41 41 46 45 42 43 44 44 44 44 39 40 41 44 45 49 45 45 45 42 30 28 25 30 34 32 47 47 50 53 57 54 47 45
55 55 53 56 58 57 52 42 29 35 37 44 42 42 41 44 42 42 41 41 46 41 38 39 37 45 48 49 45 43 42 31 24 23 28 32 30 39 46 52 50 49 49 44 41
55 48 51 53 57 56 46 35 36 37 43 44 44 40 38 41 42 39 37 41 46 46 44 37 38 43 45 48 53 41 37 45 36 18 23 33 37 44 46 46 46 48 45 42 43
46 44 45 54 56 53 43 38 41 46 47 48 41 42 36 37 40 38 36 42 43 49 48 46 36 39 41 47 43 44 47 36 32 22 18 29 31 38 43 45 50 49 49 41 41
45 40 47 54 55 46 37 39 43 46 49 46 44 41 39 39 40 35 40 41 44 44 52 46 41 33 38 38 39 38 37 37 37 31 26 21 34 41 49 48 49 50 47 45 41
41 35 47 54 40 41 37 44 47 47 50 48 47 47 41 41 38 38 38 43 48 48 44 47 42 30 35 38 39 39 38 38 30 28 28 27 39 44 47 48 47 49 49 42 41
35 39 47 49 34 35 41 42 45 45 46 46 44 47 47 43 39 40 40 46 49 49 44 47 38 25 31 34 36 34 38 43 37 30 31 27 39 41 39 42 46 48 44 42 40
34 29 37 41 44 39 37 38 39 46 47 48 46 47 45 44 47 39 40 44 47 49 48 50 41 35 35 35 38 33 36 40 43 34 36 38 44 41 44 43 46 47 45 41 39
36 30 36 29 34 37 40 40 37 37 45 47 44 43 43 39 40 40 42 41 44 46 47 47 34 37 42 42 39 36 36 39 39 43 37 44 44 51 51 47 50 49 45 41 39
33 29 34 32 34 35 37 36 34 36 41 41 39 43 45 40 41 39 43 43 43 42 43 44 34 38 36 41 38 36 37 40 41 44 44 45 45 51 49 46 44 48 46 43 41
38 39 36 34 32 31 34 36 36 40 42 42 41 40 42 44 48 50 49 49 48 46 39 39 36 34 32 37 37 31 38 41 40 45 45 38 48 49 52 51 53 50 44 44 45

GFSSW_sfc_temp_054.txt.gz
Temp
63 63 63 63 63 63 64 64 63 63 63 64 64 64 64 64 64 62 61 66 66 70 68 64 64 63 62 58 57 52 48 43 46 47 50 54 53 52 52 53 50 52 50 51 55
62 62 63 63 63 63 63 63 63 63 63 63 64 64 64 63 61 61 69 71 71 71 64 61 59 61 58 55 54 50 45 49 51 50 50 53 53 56 53 50 49 48 49 50 52
62 62 62 62 62 63 63 63 62 63 63 63 63 63 63 60 60 61 71 72 71 69 63 62 61 59 53 52 50 47 48 51 52 53 54 54 51 54 53 49 55 55 53 51 51
61 61 61 61 62 62 62 62 62 62 63 63 63 63 62 59 50 62 70 71 70 64 63 62 60 53 49 49 52 48 50 52 54 54 54 53 55 53 53 55 52 56 54 51 51
60 60 60 61 61 62 62 62 62 62 62 63 63 63 60 56 59 65 68 68 63 63 61 59 56 54 50 51 52 49 50 53 54 53 51 54 51 53 53 52 50 52 53 51 51
61 61 60 60 61 61 62 62 62 62 62 63 63 63 56 50 63 65 63 63 63 61 58 59 57 57 54 50 50 50 51 51 52 53 52 51 49 50 53 47 47 50 51 50 50
61 61 60 60 60 60 61 61 62 62 62 63 63 60 53 59 61 63 64 61 61 61 59 59 59 57 54 50 53 51 47 50 49 51 51 52 50 52 50 48 49 48 48 48 49
61 60 60 60 60 60 60 61 61 61 62 63 63 56 54 61 60 62 62 61 62 63 61 60 61 58 54 53 52 46 45 42 47 50 50 51 44 53 50 49 50 48 46 47 49
60 59 60 60 60 60 60 60 60 61 62 62 54 52 53 64 58 60 60 59 59 60 61 66 59 51 52 46 42 42 38 37 46 50 47 47 44 49 45 47 49 47 46 46 46
60 60 60 60 60 60 60 60 60 59 60 61 61 50 55 53 57 59 58 60 57 56 57 56 49 45 42 43 37 38 36 38 39 45 44 42 44 50 49 46 47 46 46 45 47
59 60 60 60 60 60 57 54 54 52 51 54 53 52 53 56 58 56 58 58 56 54 47 46 44 41 46 45 43 42 38 38 42 47 45 44 44 49 50 44 46 46 46 48 50
58 59 60 60 60 60 54 50 52 54 48 55 53 54 57 57 51 55 59 53 50 45 45 43 40 49 49 46 44 41 38 39 43 45 44 44 44 49 48 48 49 53 51 50 51
57 58 59 59 59 57 51 53 57 56 46 51 52 52 55 57 53 54 58 51 46 43 43 41 46 48 49 42 42 40 39 38 42 42 41 38 38 43 48 47 49 50 54 53 54
57 57 58 58 55 55 51 58 58 55 39 44 48 52 53 55 49 56 57 54 45 46 43 43 47 47 43 42 46 38 44 43 41 38 33 37 31 38 46 48 48 54 50 52 54
56 56 57 60 55 52 56 58 57 55 30 46 47 56 51 52 49 48 52 51 45 45 46 44 43 43 42 44 47 43 44 42 39 36 32 31 32 37 39 44 50 55 56 53 53
56 56 56 56 56 57 58 57 54 38 29 41 47 45 45 47 45 47 48 53 50 45 42 42 44 47 47 45 47 46 43 40 35 34 29 36 36 41 41 47 49 54 56 54 49
55 55 53 55 52 58 56 52 35 30 42 39 40 44 44 42 42 43 43 42 42 37 38 40 42 43 47 43 43 42 41 31 28 24 29 32 33 48 45 50 51 55 55 49 46
55 55 52 54 57 57 52 43 30 36 37 43 41 40 40 43 41 40 39 38 43 39 35 38 37 43 47 47 43 40 42 31 24 22 28 30 29 39 46 49 49 48 49 44 44
54 46 49 50 54 55 47 34 37 36 41 41 41 38 37 39 41 38 37 37 43 44 40 35 36 41 43 45 51 40 37 43 35 17 23 34 36 44 45 46 46 46 45 45 43
43 45 43 53 53 52 42 37 41 44 44 46 39 41 35 36 39 38 35 41 42 48 48 43 35 37 40 44 42 43 45 34 31 23 17 29 31 38 44 46 49 47 49 45 43
42 39 45 51 54 44 35 37 43 45 48 46 43 41 38 36 39 35 38 41 43 43 51 47 41 33 36 37 38 39 37 36 37 32 24 21 36 40 49 50 49 50 47 46 44
38 32 45 52 39 37 36 39 46 45 48 47 46 45 41 39 37 37 37 43 47 47 43 45 41 36 37 36 37 36 38 38 30 27 27 27 40 44 45 44 46 50 47 42 42
33 33 44 47 33 34 37 39 43 42 45 44 44 44 46 44 40 39 38 44 47 48 44 46 37 27 32 33 33 34 37 41 35 29 30 26 40 42 40 43 44 46 46 45 41
35 27 33 39 39 35 36 36 36 43 43 45 45 46 43 42 46 39 38 42 46 49 48 50 38 33 33 34 36 31 34 39 42 33 38 35 43 45 42 45 45 46 45 44 42
37 30 33 28 31 33 36 38 35 34 42 43 41 42 40 36 40 38 41 39 43 45 46 46 33 37 40 39 36 36 35 37 39 43 35 44 43 50 52 49 50 49 46 46 43
34 32 34 30 33 32 34 35 34 36 36 37 38 42 43 39 42 36 42 42 42 41 43 43 34 36 35 39 36 34 36 38 40 42 43 44 44 54 51 48 45 48 51 46 43
37 38 35 33 31 28 30 33 35 38 40 41 38 36 38 44 46 46 43 45 46 45 40 39 35 33 32 36 34 30 36 40 41 43 43 38 47 50 52 51 52 53 46 48 46

GFSSW_sfc_temp_057.txt.gz
Temp
63 63 63 63 63 63 64 64 63 63 64 64 64 64 64 64 65 63 62 66 66 71 68 64 66 65 64 60 59 57 51 47 50 50 55 55 58 57 59 58 58 59 60 61 60
62 62 63 63 63 63 63 63 63 63 63 63 64 64 64 63 62 62 68 71 71 71 65 63 61 62 59 58 57 54 49 52 54 54 55 56 58 58 59 57 57 58 58 57 57
62 62 62 62 63 63 63 63 62 63 63 63 63 63 63 60 61 60 71 72 71 69 64 64 63 61 56 56 53 51 51 53 55 56 57 57 55 58 57 55 60 60 59 55 55
61 61 61 61 62 62 62 62 62 62 63 63 63 63 63 59 50 62 69 71 71 64 64 62 62 56 52 52 54 51 52 54 57 56 56 56 56 56 56 61 58 60 59 54 54
60 60 60 61 61 62 62 62 62 62 62 63 63 63 61 58 57 64 68 68 64 63 61 60 57 55 52 53 53 51 53 54 55 54 54 56 55 56 56 59 56 56 55 54 55
61 60 60 60 61 61 61 62 62 62 62 63 63 63 58 51 62 65 63 64 64 63 59 60 59 58 55 52 52 52 53 53 54 54 54 54 53 53 57 54 56 54 55 54 54
61 60 60 60 60 61 61 61 61 62 62 63 63 61 56 57 61 63 65 61 61 61 60 59 60 58 55 52 53 52 49 52 51 53 53 54 52 54 56 53 55 54 53 52 53
61 60 60 60 60 60 60 61 61 61 62 62 63 56 53 60 60 63 63 61 63 63 62 59 61 58 55 53 52 48 47 44 50 51 52 53 47 55 53 53 56 54 52 51 53
60 60 60 60 60 60 60 60 60 61 62 63 54 53 52 63 59 59 60 60 60 61 60 64 58 51 52 47 44 43 41 40 48 50 49 49 47 52 50 49 52 52 51 50 51
60 60 60 60 60 60 60 60 60 59 60 61 60 51 54 53 56 58 58 61 58 56 57 56 49 46 44 44 39 41 39 40 42 47 45 45 46 52 51 49 51 51 51 50 51
59 60 60 60 60 60 57 55 54 52 51 52 52 51 52 55 57 55 57 58 56 54 47 46 45 43 47 45 44 43 41 41 43 47 46 45 46 49 53 48 48 51 52 52 52
57 58 59 60 60 60 54 52 52 53 48 54 53 54 55 57 51 53 59 54 50 45 45 43 41 48 48 46 45 42 40 41 44 45 46 44 45 51 50 54 55 57 56 55 57
57 57 58 59 59 57 51 54 56 54 46 50 52 52 54 57 53 53 57 51 46 42 43 41 46 47 48 42 42 40 40 40 43 42 42 40 40 44 49 49 52 52 57 56 57
57 57 58 58 56 55 52 57 57 55 39 44 47 51 52 54 49 54 56 53 44 45 42 42 47 46 42 41 45 38 44 43 41 40 35 40 33 41 46 49 49 53 53 55 57
56 56 56 59 55 53 56 57 58 56 30 45 46 55 50 50 47 48 52 50 44 45 45 43 42 42 42 44 45 42 43 42 39 37 35 35 34 40 41 45 49 56 57 56 55
55 55 56 56 56 56 57 58 55 39 31 40 45 44 45 45 44 46 48 52 48 45 42 42 43 45 46 44 45 44 42 39 35 35 29 36 38 42 41 47 51 53 56 55 53
55 55 53 55 52 57 57 52 36 31 42 38 38 42 41 41 42 43 42 42 41 36 36 39 41 42 46 42 43 41 40 31 28 25 30 33 34 49 47 50 51 56 59 53 51
55 55 51 54 56 56 52 43 30 37 37 41 40 39 38 41 39 38 39 38 42 38 35 36 34 42 46 47 42 39 41 32 24 23 29 31 30 40 47 49 49 50 50 47 48
53 45 45 49 54 54 46 33 35 38 40 40 39 35 35 38 39 37 36 36 42 44 39 34 35 40 42 44 50 39 36 44 36 17 24 33 37 46 46 47 47 48 47 46 47
42 41 43 51 51 51 42 37 40 43 43 43 38 41 33 35 36 34 35 40 42 46 48 42 35 38 39 43 41 43 45 35 31 23 18 31 32 40 44 49 50 49 49 49 47
40 34 43 49 52 43 35 38 41 44 47 44 40 40 37 37 38 33 37 40 43 42 50 46 40 33 36 37 37 38 37 36 37 32 25 22 35 41 48 50 49 50 49 49 49
37 29 43 49 39 39 36 38 45 45 46 45 44 44 40 39 37 35 36 42 45 45 42 45 42 34 35 37 37 34 37 40 32 27 26 27 40 44 46 49 47 48 48 48 46
33 32 42 46 30 32 34 37 40 39 42 43 41 44 43 41 38 39 39 42 46 46 43 45 37 24 32 34 33 33 36 39 35 29 28 28 39 43 42 45 45 46 46 47 46
35 27 32 37 39 33 31 32 33 40 41 43 43 45 42 39 44 39 36 40 43 47 48 49 38 34 34 34 36 31 34 40 42 33 38 34 43 50 45 46 47 48 47 47 46
37 30 32 24 29 34 37 36 33 33 39 41 38 39 39 37 38 37 40 41 42 45 45 45 34 36 39 38 36 36 35 38 39 42 37 42 43 50 52 52 55 55 48 48 48
34 32 31 29 32 32 32 32 33 37 37 34 36 39 38 36 39 37 41 41 40 42 42 42 33 36 34 37 38 35 36 37 40 42 43 45 44 56 57 49 47 50 53 53 49
38 39 35 33 28 28 30 32 33 35 38 40 38 34 34 37 39 39 41 41 40 38 37 38 34 33 31 37 35 30 35 39 40 42 42 37 46 53 51 52 49 49 48 50 51

GFSSW_sfc_temp_060.txt.gz
Temp
63 63 63 63 63 64 64 64 64 64 64 64 64 64 64 64 65 70 73 73 74 71 69 78 79 77 78 74 73 73 71 66 66 64 69 69 70 70 71 72 70 72 72 71 77
63 63 63 63 63 63 63 63 63 63 64 64 64 64 64 64 72 72 72 72 72 71 77 78 76 77 76 71 73 75 69 68 70 71 70 70 72 72 70 70 70 71 71 69 70
62 62 62 62 63 63 63 63 63 63 63 63 63 64 63 66 72 70 71 72 72 73 77 77 77 76 71 72 69 67 69 68 68 69 70 70 68 73 71 68 76 74 75 69 70
61 61 61 62 62 62 63 62 62 63 63 63 63 63 63 71 62 72 70 71 71 76 76 75 75 72 69 68 68 67 66 67 67 67 66 67 70 68 71 78 74 78 78 72 69
61 60 61 61 61 62 62 62 62 62 62 63 63 63 69 70 68 73 68 71 75 76 74 73 72 71 68 67 67 66 66 66 66 65 67 65 68 70 69 78 71 69 68 71 72
60 60 60 60 61 61 62 62 62 62 62 63 63 63 72 66 71 72 72 73 74 75 72 74 72 73 68 66 66 66 65 66 66 67 66 64 67 66 74 76 72 69 72 73 72
61 60 60 60 61 61 61 61 62 62 62 63 63 66 70 68 71 73 73 72 72 74 71 72 73 72 70 64 65 64 63 66 66 65 66 65 62 64 75 66 71 72 74 73 71
61 60 60 60 60 60 61 61 61 61 62 63 63 68 67 70 73 71 74 72 73 73 72 71 74 69 68 66 65 62 63 60 63 62 64 64 62 70 67 68 70 73 75 72 72
60 60 60 60 60 60 60 61 60 61 62 64 67 67 64 69 68 69 72 70 70 71 71 71 71 65 66 64 61 59 59 56 60 62 61 62 63 69 64 63 68 73 74 73 72
60 60 60 60 60 60 60 61 61 62 65 66 66 64 65 63 65 67 70 70 68 68 69 68 66 64 63 62 55 57 55 55 58 60 58 60 60 69 70 63 68 72 73 72 71
58 59 60 60 60 61 64 63 64 63 63 63 62 62 61 64 66 65 67 68 68 67 61 58 61 57 64 63 60 59 57 57 60 59 57 60 62 66 70 69 67 69 72 73 73
56 57 59 60 60 60 64 63 61 60 57 61 60 61 63 65 60 62 68 64 61 58 58 58 55 64 59 58 57 56 56 57 59 55 56 59 58 65 67 67 71 72 73 74 75
55 55 57 59 60 60 60 60 62 63 55 56 59 59 61 63 61 61 66 61 58 53 56 58 60 58 57 54 53 55 54 56 55 54 55 54 57 63 67 65 66 69 72 74 75
56 55 57 58 56 58 56 60 63 63 52 52 53 57 58 61 57 60 66 63 55 56 54 56 58 54 53 53 57 53 57 55 52 52 50 53 50 61 66 66 65 70 72 73 72
56 56 56 57 55 55 55 59 61 60 34 52 51 62 56 57 55 55 61 61 55 52 55 55 50 50 51 55 56 54 53 53 51 51 47 51 46 58 56 60 65 69 71 74 74
55 55 56 56 58 59 61 60 58 40 32 48 51 50 51 53 51 54 57 61 58 53 52 53 53 55 56 51 55 52 51 50 49 49 42 53 49 56 64 63 66 68 71 72 73
55 55 55 56 53 58 59 57 38 32 47 45 46 48 48 48 49 51 50 50 51 46 47 49 50 52 53 50 51 52 52 44 40 37 41 45 44 55 63 64 64 68 71 70 67
55 54 53 55 56 57 55 44 32 42 46 47 47 46 45 48 48 47 47 47 51 49 48 45 43 50 54 56 52 49 53 45 35 36 46 38 41 55 61 64 61 64 66 66 63
53 51 51 55 55 55 49 34 39 46 49 46 46 44 44 45 47 46 47 50 53 52 48 45 44 49 50 54 58 48 43 55 45 32 37 49 55 62 59 60 62 61 64 64 64
48 47 48 55 57 52 42 39 44 50 49 48 44 48 44 47 44 44 44 51 49 53 59 52 44 46 48 53 51 52 55 43 44 33 33 47 48 51 58 64 65 61 63 65 65
46 41 49 54 56 46 36 39 46 51 52 48 47 46 46 44 46 43 45 51 51 50 56 56 47 43 46 46 47 47 46 46 47 43 38 38 49 65 63 65 61 63 60 63 63
43 35 49 51 41 44 39 44 48 49 51 50 50 48 45 45 43 45 44 50 53 53 46 53 47 41 46 50 51 54 52 51 42 36 41 41 46 58 62 62 58 60 59 61 61
39 40 49 47 35 37 41 43 46 45 47 46 46 48 50 45 39 45 47 52 51 52 48 51 41 33 39 43 43 43 48 50 51 38 37 36 44 59 58 59 59 58 61 61 59
38 33 40 40 44 40 39 38 38 46 46 47 46 47 44 40 43 38 40 48 49 50 46 48 42 38 38 46 47 39 44 47 47 38 41 43 49 58 60 59 61 61 62 62 61
38 36 41 32 34 37 40 40 37 38 44 46 43 43 43 37 40 38 42 40 42 45 48 45 34 40 44 47 46 44 44 45 43 47 42 47 49 55 60 61 64 65 65 65 62
34 34 36 36 39 36 37 37 36 39 41 39 38 42 42 39 41 39 43 44 40 43 39 43 33 36 34 42 42 40 44 44 45 47 49 50 50 61 63 64 62 61 61 61 63
40 40 39 37 35 34 35 36 37 40 42 44 43 38 38 41 43 45 43 42 39 36 37 37 34 32 30 39 37 31 37 42 45 49 50 44 52 58 58 59 60 61 61 59 62

GFSSW_sfc_temp_063.txt.gz
Temp
63 63 63 63 63 64 64 64 64 64 64 64 65 64 64 64 65 72 77 75 76 72 70 83 84 83 84 79 80 81 73 68 71 70 74 77 74 77 79 77 76 78 78 78 84
63 63 63 63 63 63 63 63 63 63 64 64 64 64 64 64 75 76 72 72 72 72 79 80 80 81 80 77 79 76 71 72 77 78 75 76 76 78 74 76 75 76 78 76 79
62 62 62 62 62 63 63 63 63 63 63 63 63 63 63 67 75 74 71 72 72 74 82 83 83 81 76 78 76 76 71 76 75 76 75 75 74 78 74 73 79 78 79 75 75
62 61 62 62 62 62 63 62 62 63 63 63 63 63 63 74 64 75 70 71 71 78 80 79 79 75 73 70 75 70 73 74 72 71 71 72 76 73 74 78 81 85 85 78 75
61 60 61 61 61 62 62 62 62 62 62 63 63 63 71 72 72 77 68 72 78 78 78 77 76 76 71 73 72 71 72 71 71 70 71 70 71 73 76 81 80 77 76 78 77
60 60 60 60 61 61 62 62 62 62 62 63 63 62 73 67 74 77 76 76 79 79 77 78 77 78 74 72 70 71 71 71 71 71 71 68 72 69 77 82 82 77 76 79 78
61 60 60 60 61 61 61 61 62 62 62 63 63 70 72 70 76 78 76 76 76 78 75 76 78 75 75 68 70 69 67 70 71 71 70 69 66 68 78 75 76 78 78 80 80
60 60 60 60 60 61 61 61 61 61 62 63 64 72 70 73 78 75 77 75 78 78 77 76 79 74 72 72 69 67 67 63 71 68 68 67 63 77 77 78 74 78 80 80 80
60 60 60 60 60 60 60 61 60 61 62 64 71 71 68 71 71 73 75 74 74 75 75 76 76 71 69 67 63 65 62 63 66 68 67 65 65 76 72 71 73 77 79 80 81
59 59 60 60 60 60 60 61 62 63 67 71 72 67 67 67 69 71 75 74 72 71 71 71 71 67 67 65 57 61 60 63 62 65 63 64 64 72 76 73 72 76 79 80 79
58 58 59 60 60 60 63 66 66 64 67 67 66 65 65 67 69 68 71 72 72 70 63 65 63 59 65 68 68 64 62 61 67 65 60 63 65 70 75 76 75 76 76 78 80
56 57 58 59 60 60 64 68 63 62 59 66 65 64 67 69 63 66 71 67 65 60 62 60 57 67 65 65 62 62 60 60 66 63 58 63 63 69 72 73 75 76 77 79 81
55 56 57 59 60 62 64 64 68 68 60 61 64 63 64 66 65 65 68 67 63 60 59 59 62 64 61 59 58 60 59 60 60 60 61 58 59 66 74 75 75 76 78 78 80
55 55 55 58 56 62 61 63 67 67 54 58 57 59 61 65 59 64 71 67 60 59 61 60 65 58 57 57 61 55 66 61 59 55 52 60 51 64 70 72 75 76 76 78 79
55 55 55 56 56 56 59 61 64 64 34 58 54 64 59 60 59 58 65 63 60 58 59 58 55 54 54 58 62 58 58 58 56 53 53 54 49 60 69 67 70 75 77 79 80
55 55 55 56 58 58 60 61 60 42 32 49 55 53 54 56 54 57 59 65 61 60 58 58 58 60 60 56 60 59 56 55 54 53 44 54 53 57 65 69 74 76 77 78 79
55 55 56 57 55 60 60 56 37 32 48 48 49 52 54 52 53 55 52 52 52 47 49 55 54 57 57 52 55 57 54 45 43 40 42 53 51 58 67 71 72 73 74 77 75
54 54 56 57 60 58 56 47 32 43 50 52 51 51 49 52 53 53 53 51 56 56 51 48 45 53 56 57 54 51 55 46 36 40 46 44 43 57 69 72 69 69 71 71 72
53 55 55 59 57 56 48 35 41 49 55 50 51 48 48 50 52 51 52 54 58 57 49 51 48 57 57 60 62 52 46 58 46 39 39 49 57 66 68 64 67 70 71 71 72
52 51 51 59 58 52 43 38 47 55 53 54 46 52 48 49 48 49 51 57 54 59 61 56 46 51 52 55 56 54 59 44 46 34 33 46 50 53 61 66 69 69 69 71 71
50 45 52 57 58 45 37 41 49 55 55 51 50 50 51 51 50 49 51 56 57 55 59 57 51 45 50 49 51 49 48 49 51 47 38 38 48 66 66 67 66 67 66 67 68
48 38 52 56 42 45 40 47 49 51 55 52 53 51 51 50 48 50 48 54 58 56 50 56 51 43 48 57 57 58 53 52 42 40 45 42 45 67 67 66 65 64 67 67 66
42 45 52 48 38 41 45 46 50 48 50 49 48 51 54 49 42 47 48 58 55 54 49 53 42 33 39 48 49 47 53 53 53 44 37 36 44 65 68 67 66 64 67 67 66
42 36 43 42 48 44 43 43 42 50 49 52 49 52 48 46 50 45 45 48 50 51 45 48 38 39 38 47 51 43 47 51 49 39 41 43 49 58 62 64 67 67 64 67 69
41 39 46 33 36 41 44 45 41 41 47 50 46 46 45 41 44 43 46 46 48 45 46 42 33 37 42 46 46 45 46 47 46 49 43 47 49 56 60 63 66 69 69 68 68
35 38 42 42 43 38 38 39 39 43 44 42 42 47 47 42 45 42 46 42 40 47 44 40 32 35 32 40 41 36 41 45 47 48 48 50 50 62 65 66 65 65 66 65 66
42 42 42 40 39 38 35 38 41 44 46 48 47 44 43 46 51 50 45 43 42 38 36 39 35 32 29 39 39 31 37 42 45 49 49 43 52 59 59 61 62 64 64 64 65

GFSSW_sfc_temp_069.txt.gz
Temp
63 63 63 63 63 64 64 64 63 63 64 64 64 64 64 64 64 66 67 69 70 71 70 70 70 70 69 65 65 62 52 48 53 55 56 61 58 63 62 64 61 63 61 63 68
63 63 63 63 63 63 63 63 63 63 63 63 64 64 64 63 65 66 69 72 72 71 69 66 64 67 62 62 62 56 50 53 59 57 58 62 60 62 59 58 56 57 60 64 66
62 62 62 62 63 63 63 63 62 63 63 63 63 63 63 62 63 65 70 72 72 70 69 69 69 67 59 60 58 56 53 58 59 60 62 62 58 62 60 54 61 62 61 63 62
61 61 61 62 62 62 62 62 62 62 63 63 63 63 62 64 54 66 70 71 71 69 70 68 65 59 56 56 61 53 59 62 61 61 61 58 62 58 60 61 64 65 64 63 61
61 60 60 61 61 62 62 62 62 62 62 63 63 63 63 60 62 70 68 69 68 68 67 65 60 58 55 57 60 54 57 61 60 59 57 60 56 58 59 64 63 64 64 64 63
60 60 60 60 60 61 62 62 62 62 62 63 63 63 61 55 68 72 69 68 69 67 65 64 62 64 59 57 56 56 58 58 59 58 58 56 55 55 62 63 61 62 60 60 61
60 60 60 60 60 61 61 61 62 62 62 63 63 65 60 60 68 69 70 67 67 67 65 65 64 62 60 56 59 58 52 54 57 58 55 57 54 56 60 61 62 60 59 60 60
60 59 59 59 60 60 61 61 61 61 62 62 63 60 57 67 65 69 69 66 68 69 66 65 65 64 60 58 58 51 51 44 54 57 55 55 47 59 60 59 61 59 57 59 62
59 59 59 59 59 60 60 60 60 61 62 63 59 57 55 67 64 66 66 65 66 65 65 72 64 58 56 50 46 46 40 44 49 57 55 51 47 57 60 58 56 57 59 59 60
59 59 59 59 59 60 60 61 61 61 62 66 67 54 57 58 62 65 65 67 63 61 61 60 56 50 49 46 40 41 41 47 46 53 52 48 48 54 58 58 59 58 58 59 60
58 59 59 59 60 60 58 57 55 54 56 56 56 57 59 60 63 61 65 63 62 58 50 53 47 43 48 50 52 49 45 43 47 53 50 49 48 53 57 55 54 54 55 57 60
57 57 58 59 60 60 56 55 53 55 51 60 60 60 62 62 56 58 63 57 55 49 51 47 43 52 55 54 52 48 44 43 48 51 48 48 49 53 54 58 60 61 56 57 57
55 56 56 59 60 58 56 55 61 58 49 55 58 58 58 61 56 56 61 56 51 48 49 44 50 56 55 49 50 46 44 43 46 47 47 43 42 47 54 54 58 58 59 59 61
55 55 55 57 56 57 55 59 60 58 43 50 51 55 58 59 52 58 60 57 50 49 49 47 53 53 48 49 51 44 48 50 48 42 37 44 33 42 53 57 56 59 57 58 58
55 54 55 56 54 54 55 58 57 56 27 50 50 59 55 53 52 52 57 55 49 50 49 46 47 47 45 49 52 47 50 48 45 40 36 36 33 41 46 48 54 57 58 58 58
54 55 54 56 56 56 57 57 56 40 25 45 49 48 49 50 49 51 52 55 53 49 48 47 50 49 50 48 50 52 48 47 42 39 30 39 39 36 46 51 51 54 56 57 58
55 55 53 54 52 57 56 53 37 29 46 42 43 47 46 45 47 48 46 44 43 39 38 44 45 47 50 46 49 47 43 31 29 26 29 37 34 43 51 55 55 55 54 54 57
55 54 52 54 55 56 53 43 31 38 42 48 47 46 43 47 45 46 44 40 45 43 39 38 36 45 49 48 44 43 43 32 25 25 29 35 33 45 52 56 55 55 57 54 52
54 47 49 52 54 54 47 32 36 38 47 46 45 41 41 45 45 44 41 41 46 46 41 38 39 46 48 50 52 42 39 45 35 21 25 34 40 50 53 54 59 56 54 54 55
43 44 45 54 54 51 41 35 38 50 49 50 41 45 38 42 41 42 41 46 47 49 50 46 37 42 43 47 46 45 48 36 33 23 21 30 34 41 47 50 53 54 53 53 52
42 37 46 53 53 45 36 37 46 52 52 47 42 43 44 42 44 42 44 46 50 48 53 48 42 36 41 40 41 40 38 40 41 33 26 23 34 47 50 52 50 52 54 53 54
38 31 46 50 40 41 37 43 48 48 51 49 49 47 44 44 40 43 44 44 49 50 44 48 42 30 38 43 45 43 42 42 32 30 31 30 39 49 50 50 52 52 55 54 54
34 35 45 47 34 36 42 43 45 45 47 47 44 47 49 45 40 44 43 47 47 44 43 45 36 23 32 38 41 38 42 44 42 32 30 25 37 52 51 52 52 51 52 53 53
35 28 35 38 40 35 36 38 39 46 45 47 46 46 43 40 45 41 41 43 45 45 46 46 37 32 28 33 38 33 35 38 38 26 33 36 41 50 48 50 53 51 51 52 53
36 30 34 26 30 37 35 38 37 37 43 45 42 42 41 36 38 38 41 40 42 44 42 42 34 36 35 36 38 38 36 38 36 37 33 38 35 43 47 49 53 51 53 53 53
35 30 34 32 35 33 33 32 35 39 41 38 37 42 43 39 40 35 40 40 38 40 38 39 30 34 31 37 37 33 34 35 37 39 39 39 39 49 53 55 53 52 51 51 52
36 41 37 33 31 30 30 33 35 39 41 44 42 40 38 40 42 42 42 40 39 38 35 35 32 29 17 30 31 23 32 36 39 41 42 37 43 49 47 49 47 46 45 44 46

GFSSW_sfc_temp_072.txt.gz
Temp
64 63 63 63 64 64 64 64 64 64 64 64 64 64 64 64 64 65 65 69 70 71 69 67 67 66 67 64 64 59 52 47 49 52 54 58 58 58 60 60 58 59 58 61 67
63 63 63 63 63 63 63 63 63 63 63 63 64 64 64 63 65 64 69 72 72 71 69 66 62 66 61 60 60 55 48 52 55 54 53 58 57 61 58 56 53 54 57 59 63
63 62 62 63 63 63 63 62 62 63 63 63 63 63 63 62 63 64 70 72 72 70 68 67 65 64 57 57 55 54 51 55 56 57 60 59 55 58 57 52 59 59 59 59 60
62 62 62 62 62 62 62 62 62 62 63 63 63 63 62 63 53 65 70 71 71 67 67 65 63 59 54 55 58 53 56 59 59 58 58 58 57 55 57 60 63 62 61 61 62
61 61 61 61 61 62 62 62 62 62 62 63 63 63 62 59 60 68 68 69 67 67 65 64 61 59 54 56 58 54 55 58 57 57 55 57 53 55 56 61 60 61 60 61 63
60 60 60 60 60 61 61 62 62 62 62 63 63 63 61 55 67 70 68 67 68 64 64 62 62 62 58 56 55 56 55 55 56 55 55 54 51 53 59 57 58 58 58 60 60
60 59 59 60 60 61 61 61 62 62 62 63 63 64 60 59 66 67 68 66 66 65 64 62 62 60 57 55 57 56 51 52 53 54 53 53 50 53 56 57 56 57 56 56 58
60 59 59 59 60 60 61 61 61 61 62 62 63 60 56 66 64 67 67 65 67 67 66 64 63 62 58 58 56 50 49 43 51 54 53 52 47 54 56 51 57 54 53 55 57
59 59 59 59 59 60 60 60 60 62 62 63 58 58 54 66 62 65 65 64 64 64 64 70 63 55 56 49 45 45 40 41 48 54 51 49 47 55 54 55 55 54 55 55 56
59 59 59 59 59 59 60 61 61 61 62 64 65 55 56 58 60 63 63 65 62 60 61 59 53 48 46 45 39 41 39 43 42 50 48 44 47 53 55 51 55 54 55 55 56
59 59 59 59 59 60 58 56 55 53 54 55 56 56 57 59 62 60 63 62 61 58 49 51 46 43 48 48 49 47 44 42 45 50 48 47 46 51 55 52 51 53 53 54 55
57 57 58 59 60 60 55 53 54 55 50 57 57 59 60 61 55 57 62 56 54 48 49 47 43 50 51 50 48 45 43 42 45 48 47 45 47 51 52 54 55 55 54 54 54
55 56 57 59 59 56 55 54 59 57 50 53 57 57 57 60 54 55 60 54 50 47 47 44 49 53 52 48 48 44 43 42 44 44 43 40 41 45 51 50 54 55 55 55 56
55 55 56 58 56 55 52 57 58 56 42 48 50 54 57 58 51 57 58 55 49 48 47 46 51 50 47 47 48 43 48 46 44 41 36 41 32 40 48 53 53 56 51 54 54
54 55 55 58 54 53 54 56 56 56 26 48 48 58 53 53 52 51 55 54 48 48 47 45 45 45 44 47 50 46 47 45 43 38 34 35 33 39 42 48 52 55 53 55 55
53 54 55 55 56 55 56 55 54 37 25 43 48 47 48 48 48 50 51 55 53 48 46 45 48 49 49 46 48 50 46 43 38 37 30 36 37 36 43 48 49 54 55 55 55
53 54 53 53 52 56 56 52 37 25 44 40 41 46 45 43 45 46 45 44 42 38 37 41 43 45 48 45 47 45 41 30 28 26 28 34 32 39 48 51 51 53 53 52 51
55 54 52 53 54 55 53 44 30 37 40 45 45 44 42 45 43 44 41 39 43 41 36 36 34 44 48 47 43 42 41 31 25 23 28 33 32 43 48 53 54 52 52 49 51
53 48 48 53 54 53 45 34 34 39 46 44 44 40 39 43 43 42 40 40 45 45 42 36 38 43 45 46 50 41 37 44 34 18 24 33 38 49 52 49 51 51 52 53 53
43 42 45 53 53 51 40 34 38 46 47 47 41 43 36 39 40 40 39 43 44 47 48 44 36 40 42 47 45 44 47 36 32 22 20 29 32 39 46 48 50 50 51 53 54
41 37 45 51 51 46 34 35 41 48 51 46 40 42 40 39 40 40 41 42 46 45 49 45 41 35 40 39 40 40 38 38 39 32 25 21 33 44 46 48 47 48 50 50 51
37 32 45 49 41 42 37 41 46 47 50 47 46 44 42 42 39 40 40 40 45 48 43 46 40 30 36 40 42 40 40 40 31 29 28 29 33 48 47 47 47 47 50 50 50
33 34 45 47 36 37 41 42 45 44 45 44 43 45 45 42 37 41 42 46 46 45 45 47 37 25 32 38 38 36 38 40 38 31 28 25 33 46 45 46 47 48 48 49 50
33 29 35 39 40 38 38 38 38 45 45 46 46 46 42 40 44 39 39 44 45 45 45 47 37 34 30 33 37 33 33 36 37 27 33 35 40 45 44 45 49 50 49 48 50
34 30 33 26 32 34 36 39 37 37 43 44 40 43 42 37 39 39 40 40 42 44 43 43 30 34 35 35 36 36 35 35 34 35 31 33 34 41 45 45 47 48 48 47 45
34 29 31 31 32 36 35 33 36 39 40 38 38 41 42 39 40 36 40 39 38 40 39 39 31 34 29 34 35 31 33 34 35 36 37 37 36 47 48 46 44 43 43 43 43
35 41 34 32 30 32 32 32 35 40 41 43 42 40 38 40 43 42 41 40 41 38 35 36 32 27 20 30 31 22 30 33 34 36 41 36 42 43 40 41 40 40 41 41 43

GFSSW_sfc_temp_075.txt.gz
Temp
64 64 64 64 64 64 64 64 64 64 64 64 64 64 64 64 64 64 63 68 68 71 68 66 65 65 63 62 60 56 50 47 49 51 53 56 54 55 56 57 56 57 57 57 65
63 63 63 63 63 63 64 64 63 63 63 63 64 64 64 64 63 62 69 72 72 71 66 64 63 64 60 58 58 54 49 53 55 54 53 57 54 58 55 53 52 53 55 57 62
63 63 63 63 63 63 63 63 62 63 63 63 63 63 63 62 61 63 71 72 72 69 67 66 65 63 56 55 53 52 53 55 55 56 56 58 53 55 55 51 58 59 57 57 59
62 62 62 62 62 63 63 62 62 62 63 63 63 63 62 61 52 64 70 71 71 65 66 65 62 57 55 54 56 52 55 57 58 57 58 56 55 53 54 58 58 61 60 58 60
61 61 61 61 62 62 62 62 62 62 62 63 63 63 61 57 60 67 68 68 65 65 64 62 59 57 53 56 56 51 54 56 55 55 54 56 52 53 54 59 57 58 58 58 60
60 60 60 60 61 61 62 62 62 62 62 63 63 63 58 54 66 68 66 66 66 64 62 62 61 60 56 54 53 54 55 54 54 54 53 52 50 51 53 55 53 55 56 56 58
60 59 59 60 60 61 61 61 62 62 62 63 63 63 59 58 65 65 67 65 65 64 62 62 62 59 56 54 55 55 51 50 52 53 51 53 49 51 54 52 53 54 53 54 56
60 59 59 59 60 60 61 61 61 61 61 62 63 59 55 64 63 65 66 64 64 66 65 63 63 60 56 55 54 49 46 44 50 52 51 51 46 53 53 51 53 52 51 52 55
59 59 59 59 59 59 60 60 60 61 62 63 57 57 53 66 61 64 64 63 63 64 64 68 62 54 53 47 43 43 39 40 48 52 49 47 46 53 52 52 53 51 53 54 54
59 58 59 59 59 59 60 61 61 61 62 64 64 54 56 57 60 63 62 64 61 60 60 58 52 47 45 45 39 39 37 40 41 48 47 43 47 51 54 51 52 52 52 52 53
59 58 59 59 59 60 58 56 54 53 54 54 54 54 55 59 61 59 62 61 59 57 48 49 46 43 47 46 45 44 42 41 44 48 46 45 44 50 53 49 50 51 51 52 53
58 59 59 59 59 60 55 52 53 56 50 56 57 57 58 59 55 56 62 56 54 47 49 47 43 50 50 48 48 44 41 40 44 47 46 44 46 49 50 52 52 53 53 52 52
56 56 58 59 59 56 53 54 57 55 50 52 56 56 56 58 54 54 58 53 49 46 45 44 47 51 50 45 46 42 41 41 43 43 42 40 41 43 48 48 52 52 51 52 53
55 55 56 58 55 54 52 55 57 55 42 47 49 54 56 57 50 56 57 54 47 46 46 44 48 48 45 45 46 41 47 46 43 39 35 38 33 40 45 48 50 52 49 51 51
53 55 55 58 53 52 54 55 55 55 26 48 48 57 53 52 51 50 55 54 47 46 47 44 45 44 43 46 48 44 46 43 41 37 34 34 33 40 41 45 49 50 50 50 50
51 53 54 55 55 54 55 54 54 37 25 41 46 46 47 47 47 50 51 55 52 48 46 44 46 47 47 44 46 47 44 41 36 35 29 34 34 36 41 44 46 48 49 49 50
52 51 53 54 51 55 55 52 36 23 42 39 40 44 44 42 44 45 45 44 42 37 36 40 41 43 46 44 45 43 40 30 29 25 27 32 31 38 43 47 46 47 50 49 49
54 51 51 54 54 54 53 44 29 35 38 43 43 43 41 44 41 42 41 40 41 41 35 36 34 43 47 46 43 41 40 31 24 22 28 33 31 41 46 49 48 49 49 49 49
52 47 47 52 53 54 48 34 35 38 45 42 42 38 39 42 41 40 39 39 44 43 40 35 37 42 43 45 48 40 36 41 31 16 23 31 35 47 46 46 47 49 49 49 49
45 44 45 52 53 51 42 34 37 43 45 45 39 41 34 38 40 39 38 43 43 46 46 43 35 39 41 45 43 43 46 35 30 21 19 28 30 38 40 42 45 46 47 48 50
42 39 44 50 52 45 33 35 40 46 46 44 41 40 38 38 38 36 39 41 44 43 47 44 41 34 40 39 39 39 37 37 38 32 25 21 31 41 43 44 45 45 47 48 49
37 33 45 49 41 41 35 41 45 45 49 46 44 43 40 40 38 38 37 39 43 44 41 44 39 30 35 39 41 39 40 39 32 28 27 29 32 45 45 44 45 44 46 47 47
33 32 44 47 34 36 40 41 44 43 42 43 41 43 43 40 37 40 40 43 44 44 44 45 36 26 33 36 37 36 36 39 36 31 26 26 30 45 41 42 44 45 44 45 45
34 29 34 39 40 37 37 38 37 44 43 44 42 44 41 39 42 38 39 42 44 44 45 47 37 35 32 33 37 34 35 37 38 28 30 32 36 38 42 43 45 43 42 42 43
33 30 33 24 33 36 39 39 36 35 41 43 39 40 38 34 35 36 39 40 43 43 43 43 33 35 35 36 37 36 36 36 35 34 34 33 32 39 43 44 41 40 42 42 43
33 28 31 30 32 35 36 34 36 38 39 37 37 40 40 35 37 35 39 38 38 39 40 40 32 33 31 33 35 32 34 33 33 34 35 34 36 45 41 43 40 41 42 41 41
34 40 33 30 29 31 32 33 34 39 40 43 42 40 39 41 42 41 42 43 42 39 36 36 31 29 26 29 30 26 32 32 33 35 37 33 39 40 37 39 38 39 40 40 40

GFSSW_sfc_temp_078.txt.gz
Temp
64 64 64 64 64 64 64 64 64 64 64 65 65 64 64 64 64 61 60 68 68 71 69 66 64 63 63 60 58 54 49 44 47 48 50 53 54 53 54 55 53 57 55 55 61
64 63 64 64 63 64 64 64 64 64 64 64 64 64 64 64 61 61 70 72 72 71 66 64 60 63 59 57 56 53 47 51 53 51 52 55 53 57 54 51 51 51 53 54 60
63 63 63 63 63 63 63 63 63 63 63 63 63 64 63 61 59 62 71 72 72 69 67 65 64 62 55 54 52 50 51 53 53 54 58 57 52 53 53 49 57 57 56 56 57
63 63 63 63 63 63 63 62 62 62 63 63 63 63 62 59 51 62 70 71 71 65 66 64 61 56 53 53 54 52 52 55 56 56 56 57 56 51 53 56 55 58 57 56 58
62 62 61 62 62 63 62 62 62 62 62 63 63 63 60 55 58 65 68 68 65 65 64 62 59 57 53 54 55 51 52 54 54 55 54 55 51 52 53 56 55 55 56 57 59
61 61 60 60 61 62 62 62 62 62 62 62 63 63 58 52 65 66 66 65 64 62 61 61 60 58 54 53 52 52 53 51 53 52 52 52 50 50 53 52 51 54 54 55 57
61 60 59 60 61 61 61 62 62 62 62 62 63 61 58 57 64 64 66 62 65 64 61 60 62 58 55 53 54 53 50 48 49 50 49 50 49 50 52 51 51 52 49 52 55
60 59 59 59 60 60 61 61 61 61 61 62 63 57 54 64 63 65 64 61 65 66 63 63 62 59 56 53 51 48 46 42 47 50 49 50 47 50 51 48 51 52 50 51 53
59 58 59 59 59 59 60 60 60 61 62 63 56 55 52 65 61 62 62 62 63 61 63 66 60 52 53 47 43 43 38 38 43 49 48 46 44 50 50 51 51 51 51 52 53
59 58 59 59 59 59 60 60 61 61 61 63 63 53 55 56 60 62 60 63 60 58 58 57 52 46 44 46 38 39 37 38 38 44 45 41 46 50 53 50 52 50 50 50 51
59 58 59 59 59 59 58 55 54 52 54 53 54 52 54 57 61 58 61 61 58 56 46 48 47 42 47 47 44 43 40 39 42 46 45 43 44 49 51 49 50 51 49 50 51
59 59 59 59 59 59 54 51 53 56 50 55 55 55 57 58 54 56 60 54 52 45 47 46 41 49 49 48 46 44 41 39 43 46 44 42 45 49 49 51 50 52 49 50 49
57 58 59 59 59 57 51 53 56 55 50 51 55 55 56 58 52 54 59 53 49 46 45 44 47 50 49 44 45 40 41 39 40 40 41 40 42 43 47 47 49 49 47 48 49
55 55 57 58 55 53 51 56 56 55 43 46 49 53 55 56 49 55 56 54 47 46 46 45 47 48 44 43 45 39 46 44 42 38 35 38 34 41 43 46 47 47 46 46 47
53 54 55 58 53 52 53 55 55 56 27 47 48 56 52 51 49 49 54 53 46 45 46 43 45 44 43 46 48 43 45 43 39 36 33 35 34 41 40 42 46 47 47 47 47
52 53 54 55 56 53 55 55 54 37 23 40 45 46 47 47 46 48 50 53 51 46 44 42 44 45 46 44 45 44 43 40 35 34 29 33 33 36 39 41 42 45 46 46 46
52 52 52 54 52 55 54 51 35 24 41 38 39 43 43 41 43 45 45 43 42 37 35 38 39 42 46 42 44 42 40 30 28 25 26 30 31 37 42 44 44 43 45 45 45
51 51 50 53 54 54 51 43 25 34 36 41 42 43 40 43 40 41 41 41 42 41 35 35 34 42 46 44 41 39 40 31 24 22 27 31 30 38 41 43 47 45 44 45 47
51 46 47 51 53 53 46 35 35 36 43 40 41 37 38 41 40 39 37 38 43 44 41 35 35 41 43 44 48 39 36 40 29 15 23 30 33 40 41 44 44 45 47 47 47
44 43 44 49 52 50 42 38 37 43 45 44 37 40 34 37 39 38 37 42 42 45 46 44 36 39 40 44 43 41 44 34 30 19 18 26 30 33 37 40 41 44 44 46 46
42 38 44 48 50 44 35 37 39 45 45 44 41 39 38 37 39 37 39 41 43 42 44 43 40 34 40 38 38 39 36 35 37 32 23 20 30 40 42 42 42 42 45 44 45
38 34 45 47 40 36 33 40 44 44 46 45 44 43 39 39 37 38 38 39 42 44 41 43 39 30 35 38 39 37 39 38 31 27 26 28 31 45 44 43 43 42 44 42 43
33 34 45 45 34 34 39 41 43 42 42 43 41 43 43 41 37 39 38 40 42 43 42 44 35 23 31 35 35 34 36 37 35 31 26 26 30 42 40 41 41 42 41 42 42
34 31 34 40 39 38 37 38 37 44 43 44 43 43 40 38 40 37 38 40 42 41 45 46 35 36 34 34 36 33 34 36 40 30 32 31 33 37 38 40 40 40 40 40 41
33 30 32 28 33 36 39 39 37 36 41 43 38 40 38 35 36 37 39 39 41 43 42 41 30 32 32 34 34 34 35 35 36 41 36 36 36 42 42 41 39 40 41 40 40
31 30 32 30 32 34 37 35 36 37 39 37 36 40 39 35 37 35 38 38 37 40 40 40 32 33 31 34 34 31 33 34 34 34 34 34 34 43 44 42 40 40 40 39 38
34 36 33 30 29 32 33 35 36 39 40 42 41 39 37 39 43 43 43 42 42 38 36 35 33 32 28 31 32 30 31 33 33 34 37 33 38 40 40 40 40 39 39 38 38

GFSSW_sfc_temp_081.txt.gz
Temp
65 64 64 65 65 65 65 65 65 65 65 65 65 64 64 64 64 61 59 67 69 71 70 67 65 65 65 61 61 58 52 48 50 52 55 56 58 58 61 61 60 62 63 64 63
64 64 64 65 64 64 64 64 64 64 64 64 64 64 64 64 59 59 69 72 72 71 66 65 62 63 60 59 59 56 50 52 56 55 56 57 58 60 59 57 59 60 61 60 62
63 63 64 64 64 64 64 64 63 63 64 64 64 64 64 62 58 62 71 72 72 70 67 66 64 63 57 57 56 54 54 56 56 58 58 58 56 58 58 55 61 61 62 58 60
63 63 63 64 63 63 63 63 63 63 63 63 63 63 63 59 49 62 70 71 71 67 67 63 62 57 54 55 56 55 54 57 58 57 57 57 58 56 57 61 59 62 62 58 59
62 62 63 63 63 63 63 63 62 62 63 63 63 63 59 54 57 65 68 69 66 66 64 62 60 57 54 55 56 54 54 56 56 57 56 58 54 56 57 60 59 59 58 59 61
62 61 62 61 62 63 63 63 62 62 62 63 63 63 56 51 65 66 65 65 65 64 61 62 61 60 56 54 54 53 54 54 55 54 55 54 53 54 56 57 56 57 58 57 59
62 61 61 60 61 62 62 62 62 62 62 63 63 61 56 57 64 65 65 63 64 64 62 61 63 60 57 54 55 54 52 51 52 53 52 53 52 53 54 55 55 57 57 56 57
61 60 60 60 60 61 61 61 61 61 62 62 63 57 54 63 63 65 63 61 64 64 63 63 62 59 56 54 52 49 49 45 50 51 50 53 48 53 53 53 56 56 56 55 56
60 59 59 59 59 60 60 60 60 61 62 63 57 55 52 64 60 63 63 62 62 62 62 65 59 54 53 49 45 45 41 41 45 50 49 50 48 52 53 53 54 54 55 55 55
59 59 59 59 59 59 60 61 61 61 61 62 62 52 55 55 59 62 61 62 59 59 59 57 51 48 46 46 39 40 42 40 41 47 46 44 48 51 54 52 54 53 53 54 54
59 58 59 59 59 59 58 54 53 52 52 52 52 51 54 57 60 57 60 61 58 56 47 48 46 43 47 48 45 45 42 42 42 47 45 44 45 50 52 52 52 53 53 53 54
59 58 59 59 59 60 53 50 52 56 49 54 55 54 56 58 54 55 60 55 52 45 47 46 42 49 49 47 47 44 42 41 43 46 45 42 46 50 50 50 50 50 50 52 51
59 58 58 59 59 57 50 52 55 55 51 51 55 54 55 57 52 53 58 53 48 44 43 44 46 49 48 44 45 40 43 41 42 42 42 40 44 45 48 48 49 48 48 49 49
55 58 59 59 54 55 50 55 55 55 42 46 50 53 55 55 49 54 55 53 46 44 46 46 46 46 43 43 45 40 46 45 43 40 37 40 36 41 43 48 46 46 46 46 47
54 54 55 59 51 51 54 55 55 56 26 47 47 56 52 51 49 49 53 52 46 44 46 44 43 43 41 45 47 43 45 43 40 37 37 37 37 41 42 43 45 46 46 47 47
53 53 54 55 55 53 54 54 54 37 24 40 45 46 47 46 46 48 50 53 50 46 44 42 44 45 45 44 45 44 42 40 36 35 31 36 35 38 40 43 44 45 46 47 48
52 52 53 55 52 55 54 51 34 24 41 36 39 43 43 41 43 44 44 42 41 37 36 38 40 42 45 43 45 42 40 31 30 26 28 32 32 39 42 45 46 46 46 47 47
51 51 51 53 54 55 51 43 23 34 36 41 40 42 40 43 40 41 42 40 41 41 36 35 33 42 44 43 41 40 41 32 25 23 28 31 30 39 41 43 46 46 46 46 46
50 47 49 50 53 53 47 35 34 35 41 39 41 37 37 40 41 40 39 42 44 43 40 36 36 41 43 44 47 40 38 40 29 14 23 30 35 41 41 43 44 46 46 45 45
43 44 45 48 52 50 43 37 37 42 44 43 37 40 34 36 37 37 38 42 43 46 45 43 35 38 40 44 43 41 44 36 30 19 19 27 30 34 38 41 43 44 44 44 44
42 40 44 48 51 45 37 36 39 44 46 43 40 37 37 37 38 37 39 40 44 42 46 45 41 35 40 39 38 39 37 36 37 32 23 20 30 39 42 42 42 43 43 43 42
39 34 44 47 38 34 35 41 44 43 45 44 45 42 39 39 36 38 38 39 43 45 42 44 39 32 36 39 40 38 40 39 32 27 26 27 32 42 43 42 43 43 42 42 42
34 35 44 45 32 33 35 40 43 41 42 42 41 43 43 40 36 38 39 40 42 44 44 44 36 25 31 36 36 35 37 37 35 31 25 25 30 40 39 40 42 42 42 42 42
34 31 35 40 38 36 35 36 38 43 42 43 41 43 40 39 40 36 36 39 41 42 45 46 35 35 34 35 36 33 35 36 39 32 30 32 32 35 37 39 40 41 41 41 41
33 30 33 30 33 34 38 37 36 36 42 44 40 40 40 35 36 36 39 38 40 42 40 42 32 32 32 32 34 35 35 35 37 42 37 39 35 41 40 40 41 41 40 40 40
30 31 32 31 33 34 35 34 36 37 39 38 36 41 40 36 38 36 39 37 38 38 37 38 32 32 31 35 33 33 35 37 41 37 33 34 36 43 45 41 39 40 39 39 38
34 36 34 31 31 31 33 35 35 39 39 42 41 39 38 39 42 43 43 42 41 38 36 36 34 30 23 32 31 30 33 35 35 35 38 35 39 39 38 40 39 38 39 38 38

GFSSW_sfc_temp_084.txt.gz
Temp
65 65 65 66 65 65 65 65 65 65 65 65 65 64 65 65 64 63 61 70 72 72 71 73 76 76 76 72 73 72 68 63 63 65 68 69 70 70 73 72 71 73 74 74 76
65 65 65 65 65 65 65 65 64 64 65 65 65 64 64 64 64 62 71 72 72 70 75 73 72 73 73 70 72 72 66 66 71 72 71 70 72 72 71 71 71 72 72 72 74
64 64 65 64 64 65 64 64 64 64 64 64 64 64 64 65 64 65 72 72 71 71 77 76 72 71 69 72 69 67 68 68 68 70 73 71 70 73 72 68 74 74 74 71 72
64 64 64 64 64 64 64 63 63 63 64 64 64 63 63 66 53 71 70 71 71 75 75 72 70 68 65 66 69 67 66 68 66 67 68 70 72 70 71 73 72 75 77 73 71
63 63 63 63 64 64 63 63 63 63 63 63 63 63 64 59 61 73 68 70 74 72 73 70 68 66 66 67 68 67 66 66 66 66 68 68 67 70 70 73 71 70 70 72 73
62 62 62 62 63 63 63 63 63 62 63 63 63 63 62 55 71 73 71 69 72 69 72 72 72 72 65 66 68 66 66 65 66 65 64 66 65 66 68 69 70 69 71 74 73
62 62 61 62 62 62 62 62 62 62 62 63 64 65 61 63 71 72 71 71 71 74 70 72 73 69 67 63 65 65 63 64 64 64 63 65 62 65 69 67 69 71 72 71 72
62 61 61 61 61 61 61 61 62 62 62 63 63 63 60 69 73 70 72 70 73 73 72 72 73 67 66 66 64 62 64 58 61 62 61 64 62 66 66 68 70 69 71 70 71
61 60 60 60 60 60 61 61 61 62 62 63 61 61 60 68 66 70 73 69 69 70 70 71 70 62 64 63 59 58 57 56 56 60 60 62 62 63 66 66 69 71 71 70 72
60 60 60 59 59 59 60 61 60 62 63 64 65 59 61 60 65 67 71 70 67 67 68 67 65 62 60 60 52 53 54 52 57 58 58 58 63 65 66 65 69 70 70 70 70
60 59 59 59 59 60 60 62 59 56 59 59 59 59 59 63 68 64 68 68 68 67 60 59 61 56 60 62 57 59 58 56 54 56 57 57 60 64 66 65 68 68 68 68 68
59 59 59 59 59 59 62 60 61 61 53 58 59 58 61 63 58 62 67 64 62 57 57 58 55 59 59 57 57 58 56 52 53 54 55 54 58 64 61 61 60 62 64 63 64
59 58 58 59 59 58 59 60 62 62 54 55 59 57 59 62 57 59 64 61 59 54 56 56 55 57 55 53 55 53 56 51 54 52 53 53 58 58 58 59 59 59 59 60 61
59 58 58 58 56 60 56 63 62 61 46 48 53 57 58 61 54 60 63 62 56 55 55 56 53 54 53 54 58 50 55 54 51 54 50 51 52 54 55 55 57 58 59 60 61
56 58 59 60 58 54 61 63 62 61 31 50 50 60 57 56 56 57 61 61 54 52 57 51 50 50 51 55 56 52 54 54 51 50 51 50 52 55 54 53 54 56 56 58 59
54 55 57 57 58 58 60 61 62 44 31 43 49 49 51 52 51 55 58 60 58 54 54 50 54 56 54 50 53 52 52 51 50 50 43 49 49 54 54 54 53 55 56 58 58
52 54 55 57 54 58 59 58 40 32 47 40 43 47 51 46 47 51 52 52 51 46 48 48 49 52 54 50 52 52 54 42 41 40 41 41 42 54 54 56 58 56 57 57 59
51 53 53 54 57 57 57 48 32 41 42 46 45 47 46 49 45 46 49 49 51 51 46 44 40 49 53 54 50 51 54 44 34 34 39 37 40 51 53 55 58 58 56 56 57
50 48 50 50 53 56 50 35 40 42 46 43 46 43 42 45 47 48 49 51 54 52 49 45 43 49 50 51 56 49 46 50 38 26 38 46 48 52 51 52 54 55 56 55 55
44 46 46 49 51 51 45 39 46 48 49 49 41 46 41 43 43 45 45 53 49 52 55 51 41 44 47 51 51 51 53 45 45 32 33 41 43 51 45 49 53 52 54 53 53
42 41 44 48 50 46 37 43 44 48 50 48 43 41 46 41 46 43 45 48 53 50 54 53 47 40 45 45 47 46 47 45 49 44 37 36 45 56 52 54 53 55 54 53 53
40 33 44 46 40 43 40 48 46 46 49 48 49 46 43 44 43 43 42 49 51 52 48 50 45 38 43 46 47 47 49 50 44 35 38 38 47 49 58 58 56 53 52 53 53
38 37 44 45 32 34 40 45 47 45 46 46 44 47 47 44 39 43 44 45 48 50 49 48 42 32 36 42 43 42 45 48 44 39 34 37 47 47 54 53 54 52 51 50 50
38 35 37 39 34 34 37 39 41 46 46 47 45 47 45 43 44 41 40 43 45 47 46 50 41 43 40 46 46 39 41 43 48 40 43 43 45 45 47 50 51 51 51 51 50
37 34 35 33 33 33 37 38 40 40 45 46 42 45 44 38 40 40 42 41 44 45 45 48 38 42 40 41 44 45 42 43 44 50 44 50 47 48 50 51 52 52 50 47 47
34 34 37 34 33 35 34 33 36 42 43 41 42 44 44 42 45 38 42 42 42 43 43 43 34 37 33 37 38 38 43 44 47 49 50 50 47 56 56 54 48 47 47 47 47
38 39 38 33 32 33 35 35 35 39 39 44 46 44 41 44 46 47 47 46 46 43 40 40 34 33 34 34 35 33 39 42 46 51 50 45 52 50 50 47 49 48 47 47 46